Wetterdaten: Dienstag, 03.03.2020
Datum Zeit Temp. Aussen Temp. o. S. Temp +5cm Feuchte Auss Luftdruck Regen Sonnenschein Regendauer Solar Windben Empfang
03.03.2020 00:00 5,5 C 4,4 C 3,9 C 98 % 995,7 hPa 0,0 l/m 0 min 2 min 0 W/m 12,9 km/h (3 Bft) 97,87 %
03.03.2020 00:02 5,4 C 4,4 C 3,9 C 98 % 995,7 hPa 0,0 l/m 0 min 2 min 0 W/m 3,2 km/h (1 Bft) 100,00 %
03.03.2020 00:04 5,4 C 4,4 C 3,9 C 98 % 995,8 hPa 0,0 l/m 0 min 2 min 0 W/m 9,7 km/h (2 Bft) 100,00 %
03.03.2020 00:08 5,4 C 4,4 C 3,9 C 98 % 995,9 hPa 0,0 l/m 0 min 4 min 0 W/m 9,7 km/h (2 Bft) 97,85 %
03.03.2020 00:10 5,4 C 4,4 C 3,9 C 98 % 996,0 hPa 0,0 l/m 0 min 2 min 0 W/m 12,9 km/h (3 Bft) 100,00 %
03.03.2020 00:12 5,3 C 4,4 C 3,9 C 98 % 996,0 hPa 0,0 l/m 0 min 2 min 0 W/m 9,7 km/h (2 Bft) 100,00 %
03.03.2020 00:14 5,3 C 4,4 C 3,9 C 98 % 996,0 hPa 0,0 l/m 0 min 2 min 0 W/m 9,7 km/h (2 Bft) 100,00 %
03.03.2020 00:16 5,3 C 4,4 C 3,9 C 98 % 996,0 hPa 0,0 l/m 0 min 2 min 0 W/m 3,2 km/h (1 Bft) 97,87 %
03.03.2020 00:18 5,3 C 4,4 C 3,9 C 98 % 996,1 hPa 0,0 l/m 0 min 2 min 0 W/m 0,0 km/h (0 Bft) 95,74 %
03.03.2020 00:20 5,3 C 4,4 C 3,9 C 98 % 996,1 hPa 0,0 l/m 0 min 2 min 0 W/m 16,1 km/h (3 Bft) 100,00 %
03.03.2020 00:22 5,3 C 4,4 C 3,9 C 98 % 996,2 hPa 0,0 l/m 0 min 2 min 0 W/m 6,4 km/h (2 Bft) 97,87 %
03.03.2020 00:24 5,3 C 4,4 C 3,9 C 98 % 996,2 hPa 0,0 l/m 0 min 2 min 0 W/m 6,4 km/h (2 Bft) 95,74 %
03.03.2020 00:26 5,3 C 4,4 C 3,9 C 98 % 996,3 hPa 0,0 l/m 0 min 2 min 0 W/m 12,9 km/h (3 Bft) 95,74 %
03.03.2020 00:28 5,3 C 4,4 C 3,9 C 98 % 996,3 hPa 0,0 l/m 0 min 2 min 0 W/m 9,7 km/h (2 Bft) 97,87 %
03.03.2020 00:30 5,2 C 4,4 C 3,9 C 98 % 996,4 hPa 0,0 l/m 0 min 2 min 0 W/m 12,9 km/h (3 Bft) 97,87 %
03.03.2020 00:32 5,2 C 3,9 C 3,9 C 98 % 996,3 hPa 0,0 l/m 0 min 2 min 0 W/m 12,9 km/h (3 Bft) 97,83 %
03.03.2020 00:34 5,2 C 3,9 C 3,9 C 98 % 996,4 hPa 0,0 l/m 0 min 2 min 0 W/m 6,4 km/h (2 Bft) 97,87 %
03.03.2020 00:36 5,2 C 3,9 C 3,9 C 98 % 996,4 hPa 0,0 l/m 0 min 2 min 0 W/m 16,1 km/h (3 Bft) 93,62 %
03.03.2020 00:38 5,2 C 3,9 C 3,9 C 98 % 996,4 hPa 0,0 l/m 0 min 2 min 0 W/m 3,2 km/h (1 Bft) 97,87 %
03.03.2020 00:40 5,1 C 3,9 C 3,9 C 98 % 996,4 hPa 0,0 l/m 0 min 2 min 0 W/m 12,9 km/h (3 Bft) 95,74 %
03.03.2020 00:42 5,1 C 3,9 C 3,9 C 98 % 996,5 hPa 0,0 l/m 0 min 2 min 0 W/m 19,3 km/h (3 Bft) 95,74 %
03.03.2020 00:44 5,1 C 3,9 C 3,9 C 98 % 996,5 hPa 0,0 l/m 0 min 0 min 0 W/m 6,4 km/h (2 Bft) 97,83 %
03.03.2020 00:46 5,1 C 3,9 C 3,9 C 98 % 996,5 hPa 0,0 l/m 0 min 0 min 0 W/m 22,5 km/h (4 Bft) 97,87 %
03.03.2020 00:48 5,1 C 3,9 C 3,9 C 98 % 996,6 hPa 0,0 l/m 0 min 2 min 0 W/m 16,1 km/h (3 Bft) 95,74 %
03.03.2020 00:50 5,1 C 3,9 C 3,9 C 98 % 996,7 hPa 0,0 l/m 0 min 2 min 0 W/m 16,1 km/h (3 Bft) 97,87 %
03.03.2020 00:52 5,0 C 3,9 C 3,9 C 98 % 996,7 hPa 0,0 l/m 0 min 2 min 0 W/m 12,9 km/h (3 Bft) 93,62 %
03.03.2020 00:54 5,1 C 3,9 C 3,9 C 98 % 996,7 hPa 0,0 l/m 0 min 0 min 0 W/m 12,9 km/h (3 Bft) 95,74 %
03.03.2020 00:56 5,0 C 3,9 C 3,9 C 98 % 996,8 hPa 0,0 l/m 0 min 2 min 0 W/m 16,1 km/h (3 Bft) 93,48 %
03.03.2020 00:58 5,0 C 3,9 C 3,9 C 98 % 996,8 hPa 0,0 l/m 0 min 2 min 0 W/m 12,9 km/h (3 Bft) 91,49 %
03.03.2020 01:00 5,0 C 3,9 C 3,9 C 98 % 996,9 hPa 0,0 l/m 0 min 2 min 0 W/m 6,4 km/h (2 Bft) 95,74 %
03.03.2020 01:02 5,0 C 3,9 C 3,9 C 98 % 997,0 hPa 0,0 l/m 0 min 0 min 0 W/m 9,7 km/h (2 Bft) 95,74 %
03.03.2020 01:04 5,0 C 3,9 C 3,9 C 98 % 997,0 hPa 0,0 l/m 0 min 2 min 0 W/m 12,9 km/h (3 Bft) 95,74 %
03.03.2020 01:06 5,0 C 3,9 C 3,9 C 98 % 997,0 hPa 0,0 l/m 0 min 2 min 0 W/m 9,7 km/h (2 Bft) 95,65 %
03.03.2020 01:08 4,9 C 3,9 C 3,9 C 98 % 997,1 hPa 0,0 l/m 0 min 2 min 0 W/m 9,7 km/h (2 Bft) 97,87 %
03.03.2020 01:10 4,9 C 3,9 C 3,9 C 98 % 997,1 hPa 0,0 l/m 0 min 2 min 0 W/m 16,1 km/h (3 Bft) 97,87 %
03.03.2020 01:12 4,9 C 3,9 C 3,9 C 98 % 997,1 hPa 0,0 l/m 0 min 2 min 0 W/m 3,2 km/h (1 Bft) 95,74 %
03.03.2020 01:14 4,9 C 3,9 C 3,9 C 98 % 997,1 hPa 0,0 l/m 0 min 0 min 0 W/m 3,2 km/h (1 Bft) 93,62 %
03.03.2020 01:16 4,9 C 3,9 C 3,9 C 98 % 997,1 hPa 0,0 l/m 0 min 0 min 0 W/m 0,0 km/h (0 Bft) 95,74 %
03.03.2020 01:18 4,9 C 3,9 C 3,3 C 98 % 997,2 hPa 0,0 l/m 0 min 0 min 0 W/m 3,2 km/h (1 Bft) 95,65 %
03.03.2020 01:20 4,9 C 3,9 C 3,3 C 98 % 997,3 hPa 0,0 l/m 0 min 0 min 0 W/m 3,2 km/h (1 Bft) 95,74 %
03.03.2020 01:22 4,9 C 3,9 C 3,3 C 98 % 997,3 hPa 0,0 l/m 0 min 2 min 0 W/m 9,7 km/h (2 Bft) 95,74 %
03.03.2020 01:24 4,8 C 3,9 C 3,3 C 98 % 997,3 hPa 0,0 l/m 0 min 0 min 0 W/m 0,0 km/h (0 Bft) 97,87 %
03.03.2020 01:26 4,8 C 3,9 C 3,3 C 98 % 997,4 hPa 0,0 l/m 0 min 0 min 0 W/m 3,2 km/h (1 Bft) 93,62 %
03.03.2020 01:28 4,8 C 3,9 C 3,3 C 98 % 997,4 hPa 0,0 l/m 0 min 2 min 0 W/m 12,9 km/h (3 Bft) 95,74 %
03.03.2020 01:30 4,8 C 3,9 C 3,3 C 98 % 997,5 hPa 0,0 l/m 0 min 0 min 0 W/m 3,2 km/h (1 Bft) 95,65 %
03.03.2020 01:32 4,8 C 3,9 C 3,3 C 98 % 997,5 hPa 0,0 l/m 0 min 0 min 0 W/m 3,2 km/h (1 Bft) 93,62 %
03.03.2020 01:34 4,7 C 3,3 C 3,3 C 98 % 997,5 hPa 0,0 l/m 0 min 0 min 0 W/m 3,2 km/h (1 Bft) 95,74 %
03.03.2020 01:36 4,7 C 3,3 C 3,3 C 98 % 997,6 hPa 0,0 l/m 0 min 0 min 0 W/m 0,0 km/h (0 Bft) 93,62 %
03.03.2020 01:38 4,7 C 3,3 C 3,3 C 98 % 997,6 hPa 0,0 l/m 0 min 0 min 0 W/m 3,2 km/h (1 Bft) 93,62 %
03.03.2020 01:40 4,7 C 3,3 C 3,3 C 98 % 997,7 hPa 0,0 l/m 0 min 0 min 0 W/m 0,0 km/h (0 Bft) 97,87 %
03.03.2020 01:42 4,7 C 3,3 C 3,3 C 98 % 997,7 hPa 0,0 l/m 0 min 0 min 0 W/m 3,2 km/h (1 Bft) 95,65 %
03.03.2020 01:44 4,6 C 3,3 C 3,3 C 98 % 997,7 hPa 0,0 l/m 0 min 0 min 0 W/m 9,7 km/h (2 Bft) 95,74 %
03.03.2020 01:46 4,6 C 3,3 C 3,3 C 98 % 997,7 hPa 0,0 l/m 0 min 0 min 0 W/m 9,7 km/h (2 Bft) 93,62 %
03.03.2020 01:48 4,6 C 3,3 C 3,3 C 98 % 997,7 hPa 0,0 l/m 0 min 0 min 0 W/m 9,7 km/h (2 Bft) 95,74 %
03.03.2020 01:50 4,6 C 3,3 C 3,3 C 98 % 997,9 hPa 0,0 l/m 0 min 0 min 0 W/m 3,2 km/h (1 Bft) 97,87 %
03.03.2020 01:52 4,5 C 3,3 C 3,3 C 98 % 997,9 hPa 0,0 l/m 0 min 0 min 0 W/m 9,7 km/h (2 Bft) 97,87 %
03.03.2020 01:54 4,5 C 3,3 C 3,3 C 98 % 997,9 hPa 0,0 l/m 0 min 0 min 0 W/m 3,2 km/h (1 Bft) 95,65 %
03.03.2020 01:56 4,4 C 3,3 C 2,8 C 98 % 998,0 hPa 0,0 l/m 0 min 0 min 0 W/m 0,0 km/h (0 Bft) 95,74 %
03.03.2020 01:58 4,4 C 3,3 C 2,8 C 98 % 998,0 hPa 0,0 l/m 0 min 0 min 0 W/m 0,0 km/h (0 Bft) 97,87 %
03.03.2020 02:00 4,4 C 3,3 C 2,8 C 97 % 998,0 hPa 0,0 l/m 0 min 0 min 0 W/m 6,4 km/h (2 Bft) 97,87 %
03.03.2020 02:02 4,4 C 3,3 C 2,8 C 97 % 998,1 hPa 0,0 l/m 0 min 0 min 0 W/m 0,0 km/h (0 Bft) 97,87 %
03.03.2020 02:04 4,3 C 3,3 C 2,8 C 97 % 998,1 hPa 0,0 l/m 0 min 0 min 0 W/m 6,4 km/h (2 Bft) 97,67 %
03.03.2020 02:06 4,3 C 3,3 C 2,8 C 97 % 998,1 hPa 0,0 l/m 0 min 0 min 0 W/m 3,2 km/h (1 Bft) 97,87 %
03.03.2020 02:08 4,3 C 3,3 C 2,8 C 97 % 998,1 hPa 0,0 l/m 0 min 0 min 0 W/m 0,0 km/h (0 Bft) 97,83 %
03.03.2020 02:10 4,3 C 2,8 C 2,8 C 97 % 998,2 hPa 0,0 l/m 0 min 0 min 0 W/m 3,2 km/h (1 Bft) 97,87 %
03.03.2020 02:12 4,3 C 2,8 C 2,8 C 97 % 998,1 hPa 0,0 l/m 0 min 0 min 0 W/m 0,0 km/h (0 Bft) 97,87 %
03.03.2020 02:14 4,2 C 2,8 C 2,8 C 97 % 998,1 hPa 0,0 l/m 0 min 0 min 0 W/m 0,0 km/h (0 Bft) 97,87 %
03.03.2020 02:16 4,2 C 2,8 C 2,8 C 97 % 998,2 hPa 0,0 l/m 0 min 0 min 0 W/m 3,2 km/h (1 Bft) 100,00 %
03.03.2020 02:18 4,2 C 2,8 C 2,8 C 97 % 998,3 hPa 0,0 l/m 0 min 0 min 0 W/m 3,2 km/h (1 Bft) 100,00 %
03.03.2020 02:20 4,2 C 2,8 C 2,8 C 97 % 998,2 hPa 0,0 l/m 0 min 0 min 0 W/m 0,0 km/h (0 Bft) 100,00 %
03.03.2020 02:22 4,1 C 2,8 C 2,8 C 97 % 998,3 hPa 0,0 l/m 0 min 0 min 0 W/m 3,2 km/h (1 Bft) 100,00 %
03.03.2020 02:24 4,1 C 2,8 C 2,8 C 97 % 998,4 hPa 0,0 l/m 0 min 0 min 0 W/m 3,2 km/h (1 Bft) 97,87 %
03.03.2020 02:26 4,1 C 2,8 C 2,8 C 97 % 998,3 hPa 0,0 l/m 0 min 0 min 0 W/m 0,0 km/h (0 Bft) 100,00 %
03.03.2020 02:28 4,1 C 2,8 C 2,8 C 97 % 998,3 hPa 0,0 l/m 0 min 0 min 0 W/m 0,0 km/h (0 Bft) 100,00 %
03.03.2020 02:30 4,0 C 2,8 C 2,2 C 97 % 998,4 hPa 0,0 l/m 0 min 0 min 0 W/m 0,0 km/h (0 Bft) 100,00 %
03.03.2020 02:32 3,9 C 2,8 C 2,2 C 97 % 998,5 hPa 0,0 l/m 0 min 0 min 0 W/m 6,4 km/h (2 Bft) 97,87 %
03.03.2020 02:34 3,9 C 2,8 C 2,2 C 97 % 998,4 hPa 0,0 l/m 0 min 0 min 0 W/m 0,0 km/h (0 Bft) 100,00 %
03.03.2020 02:36 3,9 C 2,8 C 2,2 C 97 % 998,5 hPa 0,0 l/m 0 min 0 min 0 W/m 0,0 km/h (0 Bft) 95,74 %
03.03.2020 02:38 3,8 C 2,8 C 2,2 C 97 % 998,5 hPa 0,0 l/m 0 min 0 min 0 W/m 0,0 km/h (0 Bft) 100,00 %
03.03.2020 02:40 3,8 C 2,8 C 2,2 C 97 % 998,4 hPa 0,0 l/m 0 min 0 min 0 W/m 3,2 km/h (1 Bft) 100,00 %
03.03.2020 02:42 3,8 C 2,8 C 2,2 C 97 % 998,5 hPa 0,0 l/m 0 min 0 min 0 W/m 3,2 km/h (1 Bft) 100,00 %
03.03.2020 02:44 3,8 C 2,2 C 2,2 C 97 % 998,5 hPa 0,0 l/m 0 min 0 min 0 W/m 0,0 km/h (0 Bft) 97,83 %
03.03.2020 02:46 3,7 C 2,2 C 2,2 C 97 % 998,5 hPa 0,0 l/m 0 min 0 min 0 W/m 0,0 km/h (0 Bft) 97,87 %
03.03.2020 02:48 3,7 C 2,2 C 2,2 C 97 % 998,5 hPa 0,0 l/m 0 min 0 min 0 W/m 0,0 km/h (0 Bft) 100,00 %
03.03.2020 02:50 3,7 C 2,2 C 2,2 C 97 % 998,5 hPa 0,0 l/m 0 min 0 min 0 W/m 0,0 km/h (0 Bft) 100,00 %
03.03.2020 02:52 3,6 C 2,2 C 2,2 C 97 % 998,5 hPa 0,0 l/m 0 min 0 min 0 W/m 3,2 km/h (1 Bft) 93,62 %
03.03.2020 02:54 3,6 C 2,2 C 2,2 C 97 % 998,5 hPa 0,0 l/m 0 min 0 min 0 W/m 0,0 km/h (0 Bft) 51,16 %
03.03.2020 02:56 3,6 C 2,2 C 2,2 C 97 % 998,5 hPa 0,0 l/m 0 min 0 min 0 W/m 3,2 km/h (1 Bft) 97,87 %
03.03.2020 02:58 3,6 C 2,2 C 2,2 C 97 % 998,6 hPa 0,0 l/m 0 min 0 min 0 W/m 3,2 km/h (1 Bft) 95,74 %
03.03.2020 03:00 3,5 C 2,2 C 1,7 C 97 % 998,5 hPa 0,0 l/m 0 min 0 min 0 W/m 0,0 km/h (0 Bft) 97,87 %
03.03.2020 03:02 3,5 C 2,2 C 1,7 C 97 % 998,6 hPa 0,0 l/m 0 min 0 min 0 W/m 0,0 km/h (0 Bft) 97,87 %
03.03.2020 03:04 3,4 C 2,2 C 1,7 C 97 % 998,6 hPa 0,0 l/m 0 min 0 min 0 W/m 0,0 km/h (0 Bft) 95,74 %
03.03.2020 03:06 3,4 C 2,2 C 1,7 C 97 % 998,6 hPa 0,0 l/m 0 min 0 min 0 W/m 0,0 km/h (0 Bft) 91,30 %
03.03.2020 03:08 3,4 C 2,2 C 1,7 C 97 % 998,6 hPa 0,0 l/m 0 min 0 min 0 W/m 0,0 km/h (0 Bft) 97,87 %
03.03.2020 03:10 3,4 C 2,2 C 1,7 C 97 % 998,6 hPa 0,0 l/m 0 min 0 min 0 W/m 0,0 km/h (0 Bft) 97,87 %
03.03.2020 03:12 3,3 C 2,2 C 1,7 C 97 % 998,7 hPa 0,0 l/m 0 min 0 min 0 W/m 0,0 km/h (0 Bft) 97,87 %
03.03.2020 03:14 3,3 C 2,2 C 1,7 C 97 % 998,7 hPa 0,0 l/m 0 min 0 min 0 W/m 0,0 km/h (0 Bft) 97,87 %
03.03.2020 03:16 3,3 C 2,2 C 1,7 C 97 % 998,7 hPa 0,0 l/m 0 min 0 min 0 W/m 0,0 km/h (0 Bft) 97,87 %
03.03.2020 03:18 3,3 C 2,2 C 1,7 C 97 % 998,7 hPa 0,0 l/m 0 min 0 min 0 W/m 0,0 km/h (0 Bft) 97,83 %
03.03.2020 03:20 3,2 C 2,2 C 1,7 C 97 % 998,8 hPa 0,0 l/m 0 min 0 min 0 W/m 3,2 km/h (1 Bft) 97,87 %
03.03.2020 03:22 3,2 C 2,2 C 1,7 C 97 % 998,8 hPa 0,0 l/m 0 min 0 min 0 W/m 0,0 km/h (0 Bft) 97,87 %
03.03.2020 03:24 3,2 C 2,2 C 1,7 C 97 % 998,8 hPa 0,0 l/m 0 min 0 min 0 W/m 0,0 km/h (0 Bft) 95,74 %
03.03.2020 03:26 3,2 C 2,2 C 1,7 C 97 % 998,8 hPa 0,0 l/m 0 min 0 min 0 W/m 0,0 km/h (0 Bft) 97,87 %
03.03.2020 03:28 3,1 C 1,7 C 1,7 C 97 % 998,8 hPa 0,0 l/m 0 min 0 min 0 W/m 0,0 km/h (0 Bft) 97,87 %
03.03.2020 03:30 3,1 C 1,7 C 1,7 C 97 % 998,9 hPa 0,0 l/m 0 min 0 min 0 W/m 0,0 km/h (0 Bft) 100,00 %
03.03.2020 03:32 3,1 C 1,7 C 1,7 C 97 % 999,0 hPa 0,0 l/m 0 min 0 min 0 W/m 0,0 km/h (0 Bft) 100,00 %
03.03.2020 03:34 3,1 C 1,7 C 1,7 C 97 % 998,9 hPa 0,0 l/m 0 min 0 min 0 W/m 0,0 km/h (0 Bft) 100,00 %
03.03.2020 03:36 3,1 C 1,7 C 1,7 C 97 % 998,9 hPa 0,0 l/m 0 min 0 min 0 W/m 0,0 km/h (0 Bft) 100,00 %
03.03.2020 03:38 3,0 C 1,7 C 1,7 C 97 % 999,0 hPa 0,0 l/m 0 min 0 min 0 W/m 0,0 km/h (0 Bft) 100,00 %
03.03.2020 03:40 3,0 C 1,7 C 1,7 C 97 % 999,0 hPa 0,0 l/m 0 min 0 min 0 W/m 0,0 km/h (0 Bft) 100,00 %
03.03.2020 03:42 3,0 C 1,7 C 1,7 C 97 % 999,1 hPa 0,0 l/m 0 min 0 min 0 W/m 0,0 km/h (0 Bft) 100,00 %
03.03.2020 03:44 2,9 C 1,7 C 1,7 C 97 % 999,1 hPa 0,0 l/m 0 min 0 min 0 W/m 0,0 km/h (0 Bft) 100,00 %
03.03.2020 03:46 2,9 C 1,7 C 1,7 C 97 % 999,1 hPa 0,0 l/m 0 min 0 min 0 W/m 3,2 km/h (1 Bft) 95,74 %
03.03.2020 03:48 2,9 C 1,7 C 1,7 C 97 % 999,1 hPa 0,0 l/m 0 min 0 min 0 W/m 0,0 km/h (0 Bft) 97,87 %
03.03.2020 03:50 2,9 C 1,7 C 1,7 C 97 % 999,2 hPa 0,0 l/m 0 min 0 min 0 W/m 0,0 km/h (0 Bft) 97,87 %
03.03.2020 03:52 2,9 C 1,7 C 1,7 C 97 % 999,2 hPa 0,0 l/m 0 min 0 min 0 W/m 0,0 km/h (0 Bft) 95,74 %
03.03.2020 03:54 2,9 C 1,7 C 1,7 C 97 % 999,3 hPa 0,0 l/m 0 min 0 min 0 W/m 0,0 km/h (0 Bft) 97,83 %
03.03.2020 03:56 2,9 C 1,7 C 1,1 C 97 % 999,4 hPa 0,0 l/m 0 min 0 min 0 W/m 0,0 km/h (0 Bft) 97,87 %
03.03.2020 03:58 2,9 C 1,7 C 1,1 C 97 % 999,3 hPa 0,0 l/m 0 min 0 min 0 W/m 0,0 km/h (0 Bft) 95,74 %
03.03.2020 04:00 2,8 C 1,7 C 1,1 C 97 % 999,4 hPa 0,0 l/m 0 min 0 min 0 W/m 0,0 km/h (0 Bft) 97,87 %
03.03.2020 04:02 2,8 C 1,7 C 1,1 C 97 % 999,4 hPa 0,0 l/m 0 min 0 min 0 W/m 0,0 km/h (0 Bft) 100,00 %
03.03.2020 04:04 2,8 C 1,7 C 1,1 C 97 % 999,4 hPa 0,0 l/m 0 min 0 min 0 W/m 0,0 km/h (0 Bft) 97,83 %
03.03.2020 04:06 2,8 C 1,7 C 1,1 C 97 % 999,4 hPa 0,0 l/m 0 min 0 min 0 W/m 0,0 km/h (0 Bft) 96,67 %
03.03.2020 04:08 2,8 C 1,7 C 1,1 C 97 % 999,5 hPa 0,0 l/m 0 min 0 min 0 W/m 0,0 km/h (0 Bft) 93,62 %
03.03.2020 04:10 2,8 C 1,7 C 1,1 C 97 % 999,4 hPa 0,0 l/m 0 min 0 min 0 W/m 0,0 km/h (0 Bft) 95,74 %
03.03.2020 04:12 2,8 C 1,7 C 1,7 C 97 % 999,5 hPa 0,0 l/m 0 min 0 min 0 W/m 0,0 km/h (0 Bft) 97,87 %
03.03.2020 04:14 2,7 C 1,7 C 1,7 C 97 % 999,5 hPa 0,0 l/m 0 min 0 min 0 W/m 0,0 km/h (0 Bft) 97,87 %
03.03.2020 04:16 2,7 C 1,7 C 1,7 C 97 % 999,6 hPa 0,0 l/m 0 min 0 min 0 W/m 0,0 km/h (0 Bft) 97,83 %
03.03.2020 04:18 2,7 C 1,7 C 1,7 C 97 % 999,6 hPa 0,0 l/m 0 min 0 min 0 W/m 0,0 km/h (0 Bft) 97,87 %
03.03.2020 04:20 2,7 C 1,7 C 1,7 C 97 % 999,7 hPa 0,0 l/m 0 min 0 min 0 W/m 0,0 km/h (0 Bft) 97,87 %
03.03.2020 04:22 2,7 C 1,7 C 1,7 C 97 % 999,7 hPa 0,0 l/m 0 min 0 min 0 W/m 3,2 km/h (1 Bft) 95,74 %
03.03.2020 04:24 2,7 C 1,7 C 1,7 C 97 % 999,7 hPa 0,0 l/m 0 min 0 min 0 W/m 0,0 km/h (0 Bft) 95,74 %
03.03.2020 04:26 2,7 C 1,7 C 1,1 C 97 % 999,8 hPa 0,0 l/m 0 min 0 min 0 W/m 0,0 km/h (0 Bft) 93,62 %
03.03.2020 04:28 2,7 C 1,7 C 1,1 C 97 % 999,8 hPa 0,0 l/m 0 min 0 min 0 W/m 0,0 km/h (0 Bft) 97,83 %
03.03.2020 04:30 2,7 C 1,7 C 1,1 C 97 % 999,9 hPa 0,0 l/m 0 min 0 min 0 W/m 6,4 km/h (2 Bft) 93,62 %
03.03.2020 04:32 2,7 C 1,7 C 1,7 C 97 % 999,9 hPa 0,0 l/m 0 min 0 min 0 W/m 0,0 km/h (0 Bft) 95,74 %
03.03.2020 04:34 2,7 C 1,7 C 1,7 C 97 % 999,9 hPa 0,0 l/m 0 min 0 min 0 W/m 0,0 km/h (0 Bft) 100,00 %
03.03.2020 04:36 2,7 C 1,7 C 1,1 C 97 % 999,9 hPa 0,0 l/m 0 min 0 min 0 W/m 0,0 km/h (0 Bft) 100,00 %
03.03.2020 04:38 2,7 C 1,7 C 1,7 C 97 % 999,9 hPa 0,0 l/m 0 min 0 min 0 W/m 0,0 km/h (0 Bft) 97,87 %
03.03.2020 04:40 2,7 C 1,7 C 1,7 C 97 % 1000,0 hPa 0,0 l/m 0 min 0 min 0 W/m 0,0 km/h (0 Bft) 100,00 %
03.03.2020 04:42 2,7 C 1,7 C 1,7 C 97 % 999,9 hPa 0,0 l/m 0 min 0 min 0 W/m 0,0 km/h (0 Bft) 100,00 %
03.03.2020 04:44 2,7 C 1,7 C 1,7 C 97 % 1000,0 hPa 0,0 l/m 0 min 0 min 0 W/m 0,0 km/h (0 Bft) 97,87 %
03.03.2020 04:46 2,7 C 1,7 C 1,7 C 97 % 1000,1 hPa 0,0 l/m 0 min 0 min 0 W/m 0,0 km/h (0 Bft) 97,87 %
03.03.2020 04:48 2,7 C 2,2 C 1,7 C 97 % 1000,1 hPa 0,0 l/m 0 min 0 min 0 W/m 0,0 km/h (0 Bft) 100,00 %
03.03.2020 04:50 2,7 C 2,2 C 1,7 C 97 % 1000,2 hPa 0,0 l/m 0 min 0 min 0 W/m 3,2 km/h (1 Bft) 97,87 %
03.03.2020 04:52 2,7 C 2,2 C 1,7 C 97 % 1000,2 hPa 0,0 l/m 0 min 0 min 0 W/m 0,0 km/h (0 Bft) 97,83 %
03.03.2020 04:54 2,8 C 2,2 C 1,7 C 97 % 1000,2 hPa 0,0 l/m 0 min 0 min 0 W/m 0,0 km/h (0 Bft) 97,87 %
03.03.2020 04:56 2,8 C 2,2 C 1,7 C 97 % 1000,3 hPa 0,0 l/m 0 min 0 min 0 W/m 0,0 km/h (0 Bft) 100,00 %
03.03.2020 04:58 2,8 C 2,2 C 1,7 C 97 % 1000,2 hPa 0,0 l/m 0 min 0 min 0 W/m 0,0 km/h (0 Bft) 100,00 %
03.03.2020 05:00 2,8 C 2,2 C 1,7 C 97 % 1000,3 hPa 0,0 l/m 0 min 0 min 0 W/m 0,0 km/h (0 Bft) 97,87 %
03.03.2020 05:02 2,8 C 2,2 C 1,7 C 97 % 1000,2 hPa 0,0 l/m 0 min 0 min 0 W/m 0,0 km/h (0 Bft) 97,83 %
03.03.2020 05:04 2,8 C 2,2 C 1,7 C 97 % 1000,3 hPa 0,0 l/m 0 min 0 min 0 W/m 3,2 km/h (1 Bft) 97,87 %
03.03.2020 05:06 2,8 C 2,2 C 1,7 C 97 % 1000,2 hPa 0,0 l/m 0 min 0 min 0 W/m 0,0 km/h (0 Bft) 97,87 %
03.03.2020 05:08 2,8 C 2,2 C 1,7 C 97 % 1000,4 hPa 0,0 l/m 0 min 0 min 0 W/m 0,0 km/h (0 Bft) 93,62 %
03.03.2020 05:10 2,8 C 1,7 C 1,7 C 97 % 1000,4 hPa 0,0 l/m 0 min 0 min 0 W/m 0,0 km/h (0 Bft) 95,74 %
03.03.2020 05:12 2,8 C 1,7 C 1,7 C 98 % 1000,4 hPa 0,0 l/m 0 min 0 min 0 W/m 0,0 km/h (0 Bft) 95,74 %
03.03.2020 05:14 2,8 C 1,7 C 1,1 C 97 % 1000,4 hPa 0,0 l/m 0 min 0 min 0 W/m 0,0 km/h (0 Bft) 95,65 %
03.03.2020 05:16 2,8 C 1,7 C 1,1 C 97 % 1000,4 hPa 0,0 l/m 0 min 0 min 0 W/m 0,0 km/h (0 Bft) 95,74 %
03.03.2020 05:18 2,8 C 1,7 C 1,1 C 97 % 1000,4 hPa 0,0 l/m 0 min 0 min 0 W/m 0,0 km/h (0 Bft) 93,62 %
03.03.2020 05:20 2,8 C 1,7 C 1,1 C 97 % 1000,4 hPa 0,0 l/m 0 min 0 min 0 W/m 0,0 km/h (0 Bft) 95,74 %
03.03.2020 05:22 2,8 C 1,7 C 1,1 C 97 % 1000,4 hPa 0,0 l/m 0 min 0 min 0 W/m 0,0 km/h (0 Bft) 95,74 %
03.03.2020 05:24 2,8 C 1,7 C 1,1 C 97 % 1000,4 hPa 0,0 l/m 0 min 0 min 0 W/m 0,0 km/h (0 Bft) 95,74 %
03.03.2020 05:26 2,8 C 1,7 C 1,1 C 97 % 1000,4 hPa 0,0 l/m 0 min 0 min 0 W/m 0,0 km/h (0 Bft) 95,65 %
03.03.2020 05:28 2,7 C 1,7 C 1,7 C 97 % 1000,4 hPa 0,0 l/m 0 min 0 min 0 W/m 0,0 km/h (0 Bft) 95,74 %
03.03.2020 05:30 2,7 C 1,7 C 1,1 C 97 % 1000,4 hPa 0,0 l/m 0 min 0 min 0 W/m 0,0 km/h (0 Bft) 95,65 %
03.03.2020 05:32 2,7 C 1,7 C 1,1 C 97 % 1000,4 hPa 0,0 l/m 0 min 0 min 0 W/m 0,0 km/h (0 Bft) 95,74 %
03.03.2020 05:34 2,7 C 1,7 C 1,1 C 97 % 1000,4 hPa 0,0 l/m 0 min 0 min 0 W/m 0,0 km/h (0 Bft) 95,74 %
03.03.2020 05:36 2,7 C 1,7 C 1,1 C 97 % 1000,4 hPa 0,0 l/m 0 min 0 min 0 W/m 0,0 km/h (0 Bft) 95,74 %
03.03.2020 05:38 2,7 C 1,7 C 1,1 C 97 % 1000,4 hPa 0,0 l/m 0 min 0 min 0 W/m 0,0 km/h (0 Bft) 95,65 %
03.03.2020 05:40 2,7 C 1,7 C 1,1 C 97 % 1000,4 hPa 0,0 l/m 0 min 0 min 0 W/m 0,0 km/h (0 Bft) 93,62 %
03.03.2020 05:42 2,7 C 1,7 C 1,1 C 97 % 1000,4 hPa 0,0 l/m 0 min 0 min 0 W/m 0,0 km/h (0 Bft) 95,74 %
03.03.2020 05:44 2,7 C 1,7 C 1,1 C 97 % 1000,5 hPa 0,0 l/m 0 min 0 min 0 W/m 0,0 km/h (0 Bft) 93,62 %
03.03.2020 05:46 2,6 C 1,7 C 1,1 C 97 % 1000,5 hPa 0,0 l/m 0 min 0 min 0 W/m 0,0 km/h (0 Bft) 95,74 %
03.03.2020 05:48 2,6 C 1,7 C 1,1 C 97 % 1000,4 hPa 0,0 l/m 0 min 0 min 0 W/m 0,0 km/h (0 Bft) 97,87 %
03.03.2020 05:50 2,6 C 1,7 C 1,1 C 97 % 1000,5 hPa 0,0 l/m 0 min 0 min 0 W/m 0,0 km/h (0 Bft) 97,83 %
03.03.2020 05:52 2,6 C 1,1 C 1,1 C 97 % 1000,5 hPa 0,0 l/m 0 min 0 min 0 W/m 0,0 km/h (0 Bft) 97,87 %
03.03.2020 05:54 2,6 C 1,1 C 1,1 C 97 % 1000,6 hPa 0,0 l/m 0 min 0 min 0 W/m 0,0 km/h (0 Bft) 95,74 %
03.03.2020 05:56 2,6 C 1,7 C 1,1 C 97 % 1000,5 hPa 0,0 l/m 0 min 0 min 0 W/m 0,0 km/h (0 Bft) 97,87 %
03.03.2020 05:58 2,6 C 1,7 C 1,1 C 97 % 1000,6 hPa 0,0 l/m 0 min 0 min 0 W/m 3,2 km/h (1 Bft) 95,74 %
03.03.2020 06:00 2,5 C 1,1 C 1,1 C 97 % 1000,5 hPa 0,0 l/m 0 min 0 min 0 W/m 0,0 km/h (0 Bft) 97,87 %
03.03.2020 06:02 2,5 C 1,1 C 1,1 C 97 % 1000,6 hPa 0,0 l/m 0 min 0 min 0 W/m 0,0 km/h (0 Bft) 93,48 %
03.03.2020 06:04 2,4 C 1,1 C 1,1 C 97 % 1000,6 hPa 0,0 l/m 0 min 0 min 0 W/m 0,0 km/h (0 Bft) 95,74 %
03.03.2020 06:08 2,4 C 1,1 C 1,1 C 97 % 1000,7 hPa 0,0 l/m 0 min 0 min 0 W/m 3,2 km/h (1 Bft) 97,87 %
03.03.2020 06:10 2,4 C 1,7 C 1,1 C 97 % 1000,7 hPa 0,0 l/m 0 min 0 min 0 W/m 0,0 km/h (0 Bft) 97,87 %
03.03.2020 06:12 2,4 C 1,1 C 1,1 C 97 % 1000,7 hPa 0,0 l/m 0 min 0 min 0 W/m 0,0 km/h (0 Bft) 97,83 %
03.03.2020 06:14 2,4 C 1,1 C 1,1 C 97 % 1000,7 hPa 0,0 l/m 0 min 0 min 0 W/m 0,0 km/h (0 Bft) 100,00 %
03.03.2020 06:16 2,4 C 1,7 C 1,1 C 97 % 1000,7 hPa 0,0 l/m 0 min 0 min 0 W/m 16,1 km/h (3 Bft) 100,00 %
03.03.2020 06:18 2,4 C 1,7 C 1,1 C 97 % 1000,8 hPa 0,0 l/m 0 min 0 min 0 W/m 6,4 km/h (2 Bft) 95,74 %
03.03.2020 06:20 2,4 C 1,7 C 1,1 C 97 % 1000,8 hPa 0,0 l/m 0 min 0 min 0 W/m 0,0 km/h (0 Bft) 100,00 %
03.03.2020 06:22 2,4 C 1,7 C 1,1 C 97 % 1000,8 hPa 0,0 l/m 0 min 0 min 0 W/m 0,0 km/h (0 Bft) 100,00 %
03.03.2020 06:24 2,4 C 1,7 C 1,1 C 97 % 1000,8 hPa 0,0 l/m 0 min 0 min 0 W/m 3,2 km/h (1 Bft) 100,00 %
03.03.2020 06:26 2,4 C 1,7 C 1,1 C 97 % 1000,8 hPa 0,0 l/m 0 min 0 min 0 W/m 0,0 km/h (0 Bft) 95,74 %
03.03.2020 06:28 2,4 C 1,7 C 1,1 C 97 % 1000,9 hPa 0,0 l/m 0 min 0 min 0 W/m 3,2 km/h (1 Bft) 100,00 %
03.03.2020 06:30 2,4 C 1,7 C 1,1 C 97 % 1000,9 hPa 0,0 l/m 0 min 0 min 0 W/m 0,0 km/h (0 Bft) 97,87 %
03.03.2020 06:32 2,4 C 1,7 C 1,1 C 97 % 1000,9 hPa 0,0 l/m 0 min 0 min 0 W/m 9,7 km/h (2 Bft) 93,62 %
03.03.2020 06:34 2,4 C 1,7 C 1,1 C 97 % 1000,9 hPa 0,0 l/m 0 min 0 min 0 W/m 3,2 km/h (1 Bft) 97,87 %
03.03.2020 06:36 2,4 C 1,7 C 1,1 C 97 % 1000,8 hPa 0,0 l/m 0 min 0 min 0 W/m 0,0 km/h (0 Bft) 95,65 %
03.03.2020 06:38 2,4 C 1,7 C 1,1 C 97 % 1000,9 hPa 0,0 l/m 0 min 0 min 0 W/m 0,0 km/h (0 Bft) 97,87 %
03.03.2020 06:40 2,4 C 1,7 C 1,1 C 98 % 1000,9 hPa 0,0 l/m 0 min 0 min 0 W/m 3,2 km/h (1 Bft) 97,87 %
03.03.2020 06:42 2,4 C 1,7 C 1,1 C 98 % 1000,9 hPa 0,0 l/m 0 min 0 min 0 W/m 3,2 km/h (1 Bft) 95,74 %
03.03.2020 06:44 2,4 C 1,7 C 1,1 C 98 % 1000,9 hPa 0,0 l/m 0 min 0 min 0 W/m 0,0 km/h (0 Bft) 97,87 %
03.03.2020 06:46 2,4 C 1,7 C 1,1 C 98 % 1001,0 hPa 0,0 l/m 0 min 0 min 0 W/m 0,0 km/h (0 Bft) 91,49 %
03.03.2020 06:48 2,4 C 1,7 C 1,1 C 98 % 1000,9 hPa 0,0 l/m 0 min 0 min 0 W/m 3,2 km/h (1 Bft) 95,65 %
03.03.2020 06:50 2,4 C 1,7 C 1,1 C 98 % 1000,9 hPa 0,0 l/m 0 min 0 min 0 W/m 0,0 km/h (0 Bft) 97,87 %
03.03.2020 06:52 2,4 C 1,7 C 1,1 C 98 % 1001,0 hPa 0,0 l/m 0 min 0 min 0 W/m 3,2 km/h (1 Bft) 97,87 %
03.03.2020 06:54 2,4 C 1,7 C 1,1 C 98 % 1001,1 hPa 0,0 l/m 0 min 0 min 0 W/m 0,0 km/h (0 Bft) 93,62 %
03.03.2020 06:56 2,4 C 1,7 C 1,1 C 98 % 1001,2 hPa 0,0 l/m 0 min 0 min 0 W/m 3,2 km/h (1 Bft) 91,49 %
03.03.2020 06:58 2,4 C 1,7 C 1,1 C 98 % 1001,2 hPa 0,0 l/m 0 min 0 min 0 W/m 0,0 km/h (0 Bft) 89,36 %
03.03.2020 07:00 2,4 C 1,7 C 1,1 C 98 % 1001,2 hPa 0,0 l/m 0 min 0 min 0 W/m 0,0 km/h (0 Bft) 93,48 %
03.03.2020 07:02 2,4 C 1,7 C 1,1 C 98 % 1001,2 hPa 0,0 l/m 0 min 0 min 0 W/m 3,2 km/h (1 Bft) 95,74 %
03.03.2020 07:04 2,3 C 1,1 C 1,1 C 98 % 1001,3 hPa 0,0 l/m 0 min 0 min 0 W/m 0,0 km/h (0 Bft) 91,49 %
03.03.2020 07:06 2,3 C 1,1 C 1,1 C 98 % 1001,3 hPa 0,0 l/m 0 min 0 min 0 W/m 0,0 km/h (0 Bft) 97,87 %
03.03.2020 07:08 2,3 C 1,7 C 1,1 C 98 % 1001,4 hPa 0,0 l/m 0 min 0 min 0 W/m 3,2 km/h (1 Bft) 97,87 %
03.03.2020 07:10 2,3 C 1,1 C 1,1 C 98 % 1001,4 hPa 0,0 l/m 0 min 0 min 0 W/m 0,0 km/h (0 Bft) 95,65 %
03.03.2020 07:12 2,3 C 1,1 C 1,1 C 98 % 1001,4 hPa 0,0 l/m 0 min 0 min 0 W/m 0,0 km/h (0 Bft) 95,74 %
03.03.2020 07:14 2,3 C 1,1 C 1,1 C 98 % 1001,4 hPa 0,0 l/m 0 min 0 min 0 W/m 0,0 km/h (0 Bft) 95,74 %
03.03.2020 07:16 2,3 C 1,1 C 1,1 C 98 % 1001,4 hPa 0,0 l/m 0 min 0 min 0 W/m 0,0 km/h (0 Bft) 97,87 %
03.03.2020 07:18 2,3 C 1,1 C 1,1 C 98 % 1001,4 hPa 0,0 l/m 0 min 0 min 0 W/m 6,4 km/h (2 Bft) 97,87 %
03.03.2020 07:20 2,3 C 1,1 C 1,1 C 98 % 1001,4 hPa 0,0 l/m 0 min 0 min 5 W/m 0,0 km/h (0 Bft) 95,74 %
03.03.2020 07:22 2,3 C 1,1 C 1,1 C 98 % 1001,4 hPa 0,0 l/m 0 min 0 min 5 W/m 0,0 km/h (0 Bft) 100,00 %
03.03.2020 07:24 2,2 C 1,1 C 1,1 C 98 % 1001,5 hPa 0,0 l/m 0 min 0 min 6 W/m 0,0 km/h (0 Bft) 100,00 %
03.03.2020 07:26 2,2 C 1,1 C 1,1 C 98 % 1001,5 hPa 0,0 l/m 0 min 0 min 7 W/m 0,0 km/h (0 Bft) 97,87 %
03.03.2020 07:28 2,2 C 1,1 C 1,1 C 98 % 1001,6 hPa 0,0 l/m 0 min 0 min 8 W/m 0,0 km/h (0 Bft) 97,87 %
03.03.2020 07:30 2,2 C 1,1 C 1,1 C 98 % 1001,5 hPa 0,0 l/m 0 min 0 min 9 W/m 0,0 km/h (0 Bft) 97,87 %
03.03.2020 07:32 2,2 C 1,1 C 1,1 C 98 % 1001,5 hPa 0,0 l/m 0 min 0 min 11 W/m 3,2 km/h (1 Bft) 97,87 %
03.03.2020 07:34 2,2 C 1,1 C 1,1 C 98 % 1001,5 hPa 0,0 l/m 0 min 0 min 11 W/m 0,0 km/h (0 Bft) 97,83 %
03.03.2020 07:36 2,2 C 1,1 C 0,6 C 98 % 1001,6 hPa 0,0 l/m 0 min 0 min 11 W/m 0,0 km/h (0 Bft) 97,87 %
03.03.2020 07:38 2,2 C 1,1 C 0,6 C 98 % 1001,7 hPa 0,0 l/m 0 min 0 min 12 W/m 0,0 km/h (0 Bft) 95,74 %
03.03.2020 07:40 2,2 C 1,1 C 1,1 C 97 % 1001,7 hPa 0,0 l/m 0 min 0 min 13 W/m 0,0 km/h (0 Bft) 97,87 %
03.03.2020 07:42 2,2 C 1,1 C 1,1 C 98 % 1001,7 hPa 0,0 l/m 0 min 0 min 16 W/m 0,0 km/h (0 Bft) 95,74 %
03.03.2020 07:44 2,2 C 1,1 C 1,1 C 97 % 1001,7 hPa 0,0 l/m 0 min 0 min 16 W/m 0,0 km/h (0 Bft) 97,83 %
03.03.2020 07:46 2,2 C 1,1 C 1,1 C 98 % 1001,7 hPa 0,0 l/m 0 min 0 min 18 W/m 0,0 km/h (0 Bft) 97,87 %
03.03.2020 07:48 2,1 C 1,1 C 1,1 C 98 % 1001,7 hPa 0,0 l/m 0 min 0 min 18 W/m 0,0 km/h (0 Bft) 97,87 %
03.03.2020 07:50 2,2 C 1,7 C 1,1 C 97 % 1001,8 hPa 0,0 l/m 0 min 0 min 19 W/m 6,4 km/h (2 Bft) 97,87 %
03.03.2020 07:52 2,1 C 1,7 C 1,1 C 97 % 1001,8 hPa 0,0 l/m 0 min 0 min 21 W/m 3,2 km/h (1 Bft) 97,87 %
03.03.2020 07:54 2,2 C 1,7 C 1,1 C 97 % 1001,8 hPa 0,0 l/m 0 min 0 min 22 W/m 0,0 km/h (0 Bft) 95,74 %
03.03.2020 07:56 2,2 C 1,7 C 1,1 C 97 % 1001,8 hPa 0,0 l/m 0 min 0 min 23 W/m 3,2 km/h (1 Bft) 97,83 %
03.03.2020 07:58 2,2 C 1,7 C 1,1 C 97 % 1001,7 hPa 0,0 l/m 0 min 0 min 24 W/m 0,0 km/h (0 Bft) 95,74 %
03.03.2020 08:00 2,2 C 1,7 C 1,1 C 97 % 1001,9 hPa 0,0 l/m 0 min 0 min 25 W/m 3,2 km/h (1 Bft) 93,62 %
03.03.2020 08:02 2,2 C 1,7 C 1,1 C 97 % 1001,8 hPa 0,0 l/m 0 min 0 min 25 W/m 0,0 km/h (0 Bft) 95,74 %
03.03.2020 08:04 2,2 C 1,7 C 1,1 C 97 % 1001,8 hPa 0,0 l/m 0 min 0 min 26 W/m 0,0 km/h (0 Bft) 97,87 %
03.03.2020 08:06 2,2 C 1,7 C 1,1 C 97 % 1001,9 hPa 0,0 l/m 0 min 0 min 26 W/m 0,0 km/h (0 Bft) 95,74 %
03.03.2020 08:08 2,2 C 1,7 C 1,1 C 97 % 1001,9 hPa 0,0 l/m 0 min 0 min 28 W/m 3,2 km/h (1 Bft) 97,83 %
03.03.2020 08:10 2,2 C 1,7 C 1,1 C 98 % 1002,0 hPa 0,0 l/m 0 min 0 min 28 W/m 0,0 km/h (0 Bft) 97,87 %
03.03.2020 08:12 2,2 C 1,7 C 1,1 C 98 % 1001,9 hPa 0,0 l/m 0 min 0 min 30 W/m 0,0 km/h (0 Bft) 100,00 %
03.03.2020 08:14 2,2 C 1,7 C 1,1 C 97 % 1001,9 hPa 0,0 l/m 0 min 0 min 30 W/m 0,0 km/h (0 Bft) 97,87 %
03.03.2020 08:16 2,2 C 1,7 C 1,1 C 98 % 1001,9 hPa 0,0 l/m 0 min 0 min 31 W/m 3,2 km/h (1 Bft) 97,87 %
03.03.2020 08:18 2,2 C 1,7 C 1,1 C 98 % 1002,0 hPa 0,0 l/m 0 min 0 min 32 W/m 0,0 km/h (0 Bft) 100,00 %
03.03.2020 08:20 2,2 C 2,2 C 1,1 C 98 % 1002,0 hPa 0,0 l/m 0 min 0 min 32 W/m 3,2 km/h (1 Bft) 100,00 %
03.03.2020 08:22 2,2 C 2,2 C 1,1 C 98 % 1002,0 hPa 0,0 l/m 0 min 0 min 33 W/m 3,2 km/h (1 Bft) 97,87 %
03.03.2020 08:24 2,3 C 2,2 C 1,1 C 98 % 1002,0 hPa 0,0 l/m 0 min 0 min 33 W/m 3,2 km/h (1 Bft) 100,00 %
03.03.2020 08:26 2,3 C 2,2 C 1,1 C 98 % 1002,0 hPa 0,0 l/m 0 min 0 min 33 W/m 19,3 km/h (3 Bft) 95,74 %
03.03.2020 08:28 2,3 C 2,2 C 1,1 C 98 % 1001,9 hPa 0,2 l/m 0 min 0 min 35 W/m 0,0 km/h (0 Bft) 100,00 %
03.03.2020 08:30 2,3 C 2,2 C 1,1 C 98 % 1001,9 hPa 0,0 l/m 0 min 0 min 35 W/m 0,0 km/h (0 Bft) 97,87 %
03.03.2020 08:32 2,4 C 2,2 C 1,1 C 98 % 1001,9 hPa 0,0 l/m 0 min 0 min 36 W/m 0,0 km/h (0 Bft) 100,00 %
03.03.2020 08:34 2,4 C 2,2 C 1,1 C 98 % 1001,9 hPa 0,0 l/m 0 min 0 min 37 W/m 6,4 km/h (2 Bft) 97,87 %
03.03.2020 08:36 2,4 C 2,2 C 1,1 C 98 % 1002,0 hPa 0,0 l/m 0 min 0 min 38 W/m 0,0 km/h (0 Bft) 97,87 %
03.03.2020 08:38 2,4 C 2,2 C 1,7 C 98 % 1001,9 hPa 0,0 l/m 0 min 0 min 39 W/m 6,4 km/h (2 Bft) 100,00 %
03.03.2020 08:40 2,4 C 2,2 C 1,7 C 98 % 1001,8 hPa 0,0 l/m 0 min 0 min 39 W/m 6,4 km/h (2 Bft) 100,00 %
03.03.2020 08:42 2,5 C 2,8 C 1,7 C 98 % 1001,9 hPa 0,0 l/m 0 min 0 min 40 W/m 6,4 km/h (2 Bft) 100,00 %
03.03.2020 08:44 2,5 C 2,8 C 1,7 C 98 % 1001,9 hPa 0,0 l/m 0 min 0 min 40 W/m 0,0 km/h (0 Bft) 97,87 %
03.03.2020 08:46 2,6 C 2,8 C 1,7 C 98 % 1001,9 hPa 0,0 l/m 0 min 0 min 41 W/m 0,0 km/h (0 Bft) 97,87 %
03.03.2020 08:48 2,6 C 2,8 C 1,7 C 98 % 1001,9 hPa 0,0 l/m 0 min 0 min 42 W/m 0,0 km/h (0 Bft) 97,87 %
03.03.2020 08:50 2,6 C 2,8 C 1,7 C 98 % 1002,0 hPa 0,0 l/m 0 min 0 min 44 W/m 3,2 km/h (1 Bft) 97,87 %
03.03.2020 08:52 2,6 C 2,8 C 1,7 C 98 % 1001,9 hPa 0,0 l/m 0 min 0 min 44 W/m 6,4 km/h (2 Bft) 95,74 %
03.03.2020 08:54 2,7 C 2,8 C 1,7 C 98 % 1001,9 hPa 0,0 l/m 0 min 0 min 44 W/m 0,0 km/h (0 Bft) 97,83 %
03.03.2020 08:56 2,7 C 2,8 C 1,7 C 98 % 1001,9 hPa 0,0 l/m 0 min 0 min 46 W/m 0,0 km/h (0 Bft) 97,87 %
03.03.2020 08:58 2,7 C 2,8 C 1,7 C 98 % 1001,9 hPa 0,0 l/m 0 min 0 min 46 W/m 3,2 km/h (1 Bft) 97,87 %
03.03.2020 09:00 2,8 C 3,3 C 1,7 C 98 % 1001,9 hPa 0,0 l/m 0 min 0 min 46 W/m 12,9 km/h (3 Bft) 97,87 %
03.03.2020 09:02 2,8 C 3,3 C 1,7 C 98 % 1002,0 hPa 0,0 l/m 0 min 0 min 47 W/m 3,2 km/h (1 Bft) 97,87 %
03.03.2020 09:04 2,8 C 3,3 C 1,7 C 98 % 1002,0 hPa 0,0 l/m 0 min 0 min 47 W/m 0,0 km/h (0 Bft) 97,87 %
03.03.2020 09:06 2,9 C 3,3 C 1,7 C 98 % 1001,9 hPa 0,0 l/m 0 min 0 min 49 W/m 3,2 km/h (1 Bft) 97,83 %
03.03.2020 09:08 2,9 C 3,3 C 1,7 C 98 % 1002,0 hPa 0,0 l/m 0 min 0 min 49 W/m 16,1 km/h (3 Bft) 97,87 %
03.03.2020 09:10 2,9 C 3,3 C 2,2 C 98 % 1002,0 hPa 0,0 l/m 0 min 0 min 51 W/m 3,2 km/h (1 Bft) 97,87 %
03.03.2020 09:12 3,0 C 3,3 C 2,2 C 98 % 1002,0 hPa 0,0 l/m 0 min 0 min 51 W/m 0,0 km/h (0 Bft) 95,74 %
03.03.2020 09:14 3,1 C 3,3 C 2,2 C 97 % 1002,0 hPa 0,0 l/m 0 min 0 min 58 W/m 19,3 km/h (3 Bft) 95,74 %
03.03.2020 09:16 3,1 C 3,9 C 2,2 C 97 % 1002,0 hPa 0,0 l/m 2 min 0 min 167 W/m 0,0 km/h (0 Bft) 95,74 %
03.03.2020 09:18 3,2 C 3,9 C 2,2 C 98 % 1002,0 hPa 0,0 l/m 2 min 0 min 275 W/m 0,0 km/h (0 Bft) 95,65 %
03.03.2020 09:20 3,3 C 5,6 C 2,2 C 97 % 1002,0 hPa 0,0 l/m 2 min 0 min 281 W/m 0,0 km/h (0 Bft) 91,49 %
03.03.2020 09:22 3,3 C 6,1 C 2,2 C 97 % 1002,0 hPa 0,0 l/m 2 min 0 min 288 W/m 3,2 km/h (1 Bft) 93,62 %
03.03.2020 09:24 3,4 C 6,7 C 2,2 C 97 % 1002,0 hPa 0,0 l/m 2 min 0 min 292 W/m 12,9 km/h (3 Bft) 95,74 %
03.03.2020 09:26 3,5 C 7,8 C 2,2 C 97 % 1002,1 hPa 0,0 l/m 2 min 0 min 299 W/m 0,0 km/h (0 Bft) 95,74 %
03.03.2020 09:28 3,6 C 7,8 C 2,2 C 97 % 1002,2 hPa 0,0 l/m 2 min 0 min 303 W/m 0,0 km/h (0 Bft) 95,74 %
03.03.2020 09:30 3,7 C 8,3 C 2,8 C 97 % 1002,2 hPa 0,0 l/m 2 min 0 min 307 W/m 3,2 km/h (1 Bft) 95,65 %
03.03.2020 09:32 3,8 C 8,3 C 3,9 C 97 % 1002,2 hPa 0,0 l/m 2 min 0 min 314 W/m 0,0 km/h (0 Bft) 95,74 %
03.03.2020 09:34 3,9 C 8,3 C 5,0 C 97 % 1002,1 hPa 0,0 l/m 2 min 0 min 320 W/m 0,0 km/h (0 Bft) 91,49 %
03.03.2020 09:36 4,0 C 8,3 C 5,6 C 97 % 1002,2 hPa 0,0 l/m 2 min 0 min 324 W/m 19,3 km/h (3 Bft) 97,87 %
03.03.2020 09:38 4,1 C 8,3 C 6,1 C 97 % 1002,2 hPa 0,0 l/m 2 min 0 min 330 W/m 3,2 km/h (1 Bft) 95,74 %
03.03.2020 09:40 4,2 C 8,9 C 6,1 C 96 % 1002,2 hPa 0,0 l/m 2 min 0 min 334 W/m 12,9 km/h (3 Bft) 95,74 %
03.03.2020 09:42 4,3 C 8,9 C 5,6 C 96 % 1002,1 hPa 0,0 l/m 2 min 0 min 339 W/m 12,9 km/h (3 Bft) 97,83 %
03.03.2020 09:44 4,4 C 9,4 C 5,6 C 96 % 1002,2 hPa 0,0 l/m 2 min 0 min 345 W/m 0,0 km/h (0 Bft) 97,87 %
03.03.2020 09:46 4,5 C 8,9 C 5,0 C 96 % 1002,1 hPa 0,0 l/m 2 min 0 min 350 W/m 29,0 km/h (5 Bft) 95,74 %
03.03.2020 09:48 4,6 C 8,3 C 4,4 C 96 % 1002,2 hPa 0,0 l/m 2 min 0 min 356 W/m 19,3 km/h (3 Bft) 97,87 %
03.03.2020 09:50 4,7 C 8,9 C 3,9 C 95 % 1002,1 hPa 0,0 l/m 2 min 0 min 360 W/m 3,2 km/h (1 Bft) 100,00 %
03.03.2020 09:52 4,7 C 10,0 C 3,9 C 95 % 1002,2 hPa 0,0 l/m 2 min 0 min 366 W/m 16,1 km/h (3 Bft) 97,87 %
03.03.2020 09:54 4,8 C 10,6 C 3,9 C 95 % 1002,2 hPa 0,0 l/m 2 min 0 min 372 W/m 12,9 km/h (3 Bft) 97,83 %
03.03.2020 09:56 4,9 C 10,0 C 3,9 C 94 % 1002,2 hPa 0,0 l/m 2 min 0 min 376 W/m 3,2 km/h (1 Bft) 97,87 %
03.03.2020 09:58 5,1 C 10,0 C 3,9 C 94 % 1002,2 hPa 0,0 l/m 2 min 0 min 381 W/m 19,3 km/h (3 Bft) 100,00 %
03.03.2020 10:00 5,1 C 10,0 C 3,9 C 94 % 1002,2 hPa 0,0 l/m 2 min 0 min 385 W/m 12,9 km/h (3 Bft) 100,00 %
03.03.2020 10:02 5,2 C 10,0 C 3,9 C 93 % 1002,2 hPa 0,0 l/m 2 min 0 min 392 W/m 19,3 km/h (3 Bft) 100,00 %
03.03.2020 10:04 5,3 C 10,0 C 3,9 C 92 % 1002,3 hPa 0,0 l/m 2 min 0 min 396 W/m 16,1 km/h (3 Bft) 97,83 %
03.03.2020 10:06 5,3 C 10,6 C 3,9 C 92 % 1002,3 hPa 0,0 l/m 2 min 0 min 398 W/m 12,9 km/h (3 Bft) 97,87 %
03.03.2020 10:08 5,4 C 11,1 C 4,4 C 92 % 1002,3 hPa 0,0 l/m 2 min 0 min 404 W/m 12,9 km/h (3 Bft) 95,74 %
03.03.2020 10:10 5,6 C 10,6 C 4,4 C 92 % 1002,4 hPa 0,0 l/m 2 min 0 min 410 W/m 25,7 km/h (4 Bft) 100,00 %
03.03.2020 10:12 5,6 C 11,1 C 4,4 C 91 % 1002,4 hPa 0,0 l/m 2 min 0 min 412 W/m 9,7 km/h (2 Bft) 97,87 %
03.03.2020 10:14 5,7 C 11,7 C 4,4 C 91 % 1002,4 hPa 0,0 l/m 2 min 0 min 416 W/m 3,2 km/h (1 Bft) 97,87 %
03.03.2020 10:16 5,8 C 11,7 C 4,4 C 91 % 1002,4 hPa 0,0 l/m 2 min 0 min 421 W/m 12,9 km/h (3 Bft) 97,83 %
03.03.2020 10:18 5,9 C 11,7 C 4,4 C 90 % 1002,5 hPa 0,0 l/m 2 min 0 min 431 W/m 12,9 km/h (3 Bft) 100,00 %
03.03.2020 10:20 6,1 C 11,1 C 4,4 C 90 % 1002,5 hPa 0,0 l/m 2 min 0 min 433 W/m 16,1 km/h (3 Bft) 100,00 %
03.03.2020 10:22 6,1 C 11,1 C 4,4 C 89 % 1002,5 hPa 0,0 l/m 2 min 0 min 432 W/m 12,9 km/h (3 Bft) 97,87 %
03.03.2020 10:24 6,2 C 11,7 C 4,4 C 89 % 1002,5 hPa 0,0 l/m 2 min 0 min 446 W/m 12,9 km/h (3 Bft) 97,87 %
03.03.2020 10:26 6,3 C 11,7 C 4,4 C 89 % 1002,5 hPa 0,0 l/m 2 min 0 min 455 W/m 9,7 km/h (2 Bft) 97,87 %
03.03.2020 10:28 6,4 C 11,7 C 5,0 C 88 % 1002,6 hPa 0,0 l/m 2 min 0 min 466 W/m 16,1 km/h (3 Bft) 100,00 %
03.03.2020 10:30 6,4 C 11,7 C 5,0 C 88 % 1002,6 hPa 0,0 l/m 2 min 0 min 466 W/m 12,9 km/h (3 Bft) 100,00 %
03.03.2020 10:32 6,5 C 11,7 C 5,0 C 87 % 1002,6 hPa 0,0 l/m 2 min 0 min 470 W/m 12,9 km/h (3 Bft) 97,87 %
03.03.2020 10:34 6,5 C 11,7 C 5,0 C 87 % 1002,6 hPa 0,0 l/m 2 min 0 min 477 W/m 12,9 km/h (3 Bft) 97,87 %
03.03.2020 10:36 6,6 C 10,6 C 5,0 C 86 % 1002,6 hPa 0,0 l/m 2 min 0 min 485 W/m 12,9 km/h (3 Bft) 97,87 %
03.03.2020 10:38 6,6 C 11,1 C 5,0 C 86 % 1002,6 hPa 0,0 l/m 2 min 0 min 490 W/m 19,3 km/h (3 Bft) 100,00 %
03.03.2020 10:40 6,7 C 11,7 C 5,0 C 86 % 1002,5 hPa 0,0 l/m 2 min 0 min 487 W/m 12,9 km/h (3 Bft) 95,65 %
03.03.2020 10:42 6,7 C 10,6 C 5,0 C 86 % 1002,6 hPa 0,0 l/m 2 min 0 min 486 W/m 16,1 km/h (3 Bft) 97,78 %
03.03.2020 10:44 6,7 C 11,1 C 5,0 C 85 % 1002,6 hPa 0,0 l/m 2 min 0 min 505 W/m 12,9 km/h (3 Bft) 100,00 %
03.03.2020 10:46 6,8 C 12,2 C 5,0 C 85 % 1002,6 hPa 0,0 l/m 2 min 0 min 506 W/m 12,9 km/h (3 Bft) 97,87 %
03.03.2020 10:48 6,9 C 11,1 C 5,0 C 85 % 1002,6 hPa 0,0 l/m 2 min 0 min 506 W/m 9,7 km/h (2 Bft) 100,00 %
03.03.2020 10:50 6,9 C 11,1 C 5,0 C 85 % 1002,6 hPa 0,0 l/m 2 min 0 min 517 W/m 12,9 km/h (3 Bft) 97,83 %
03.03.2020 10:52 6,9 C 11,1 C 5,0 C 85 % 1002,6 hPa 0,0 l/m 2 min 0 min 531 W/m 16,1 km/h (3 Bft) 97,87 %
03.03.2020 10:54 7,0 C 10,6 C 5,0 C 84 % 1002,7 hPa 0,0 l/m 2 min 0 min 532 W/m 16,1 km/h (3 Bft) 97,87 %
03.03.2020 10:56 6,9 C 11,1 C 5,0 C 84 % 1002,7 hPa 0,0 l/m 2 min 0 min 544 W/m 12,9 km/h (3 Bft) 100,00 %
03.03.2020 10:58 6,9 C 9,4 C 5,0 C 84 % 1002,7 hPa 0,0 l/m 2 min 0 min 465 W/m 9,7 km/h (2 Bft) 100,00 %
03.03.2020 11:00 6,9 C 8,3 C 5,6 C 84 % 1002,7 hPa 0,0 l/m 0 min 0 min 157 W/m 19,3 km/h (3 Bft) 97,87 %
03.03.2020 11:02 6,9 C 7,2 C 5,6 C 84 % 1002,7 hPa 0,0 l/m 0 min 0 min 128 W/m 12,9 km/h (3 Bft) 97,83 %
03.03.2020 11:04 6,9 C 7,2 C 5,6 C 83 % 1002,7 hPa 0,0 l/m 0 min 0 min 169 W/m 0,0 km/h (0 Bft) 97,87 %
03.03.2020 11:06 6,8 C 6,7 C 5,6 C 83 % 1002,7 hPa 0,0 l/m 0 min 0 min 163 W/m 22,5 km/h (4 Bft) 97,87 %
03.03.2020 11:08 6,7 C 6,1 C 5,6 C 84 % 1002,9 hPa 0,0 l/m 0 min 0 min 142 W/m 19,3 km/h (3 Bft) 100,00 %
03.03.2020 11:10 6,6 C 6,1 C 5,6 C 84 % 1002,8 hPa 0,0 l/m 0 min 0 min 139 W/m 19,3 km/h (3 Bft) 95,74 %
03.03.2020 11:12 6,5 C 6,1 C 5,6 C 83 % 1002,8 hPa 0,0 l/m 0 min 0 min 168 W/m 22,5 km/h (4 Bft) 97,83 %
03.03.2020 11:14 6,4 C 6,7 C 5,6 C 84 % 1002,8 hPa 0,0 l/m 0 min 0 min 196 W/m 16,1 km/h (3 Bft) 97,87 %
03.03.2020 11:16 6,4 C 8,9 C 5,6 C 84 % 1002,8 hPa 0,0 l/m 0 min 0 min 214 W/m 12,9 km/h (3 Bft) 100,00 %
03.03.2020 11:18 6,4 C 9,4 C 6,1 C 84 % 1002,8 hPa 0,0 l/m 2 min 0 min 639 W/m 16,1 km/h (3 Bft) 97,87 %
03.03.2020 11:20 6,5 C 9,4 C 6,7 C 85 % 1002,8 hPa 0,0 l/m 2 min 0 min 476 W/m 16,1 km/h (3 Bft) 95,74 %
03.03.2020 11:22 6,5 C 9,4 C 6,1 C 84 % 1002,8 hPa 0,0 l/m 2 min 0 min 271 W/m 25,7 km/h (4 Bft) 95,74 %
03.03.2020 11:24 6,5 C 9,4 C 6,7 C 84 % 1002,8 hPa 0,0 l/m 2 min 0 min 356 W/m 29,0 km/h (5 Bft) 91,49 %
03.03.2020 11:26 6,6 C 8,9 C 6,7 C 84 % 1002,9 hPa 0,0 l/m 2 min 0 min 316 W/m 29,0 km/h (5 Bft) 95,65 %
03.03.2020 11:28 6,6 C 8,9 C 6,7 C 84 % 1002,9 hPa 0,0 l/m 2 min 0 min 329 W/m 35,4 km/h (5 Bft) 93,62 %
03.03.2020 11:30 6,7 C 10,0 C 6,7 C 84 % 1002,9 hPa 0,0 l/m 2 min 0 min 526 W/m 29,0 km/h (5 Bft) 91,49 %
03.03.2020 11:32 6,8 C 11,1 C 7,2 C 84 % 1003,0 hPa 0,0 l/m 2 min 0 min 514 W/m 22,5 km/h (4 Bft) 93,62 %
03.03.2020 11:34 6,8 C 10,0 C 6,7 C 84 % 1003,1 hPa 0,0 l/m 2 min 0 min 690 W/m 22,5 km/h (4 Bft) 93,62 %
03.03.2020 11:36 6,8 C 10,0 C 6,7 C 83 % 1003,0 hPa 0,0 l/m 2 min 0 min 708 W/m 22,5 km/h (4 Bft) 93,48 %
03.03.2020 11:38 6,9 C 10,6 C 7,2 C 83 % 1003,0 hPa 0,0 l/m 2 min 0 min 705 W/m 29,0 km/h (5 Bft) 93,62 %
03.03.2020 11:40 7,0 C 10,0 C 7,2 C 83 % 1002,9 hPa 0,0 l/m 2 min 0 min 652 W/m 25,7 km/h (4 Bft) 93,62 %
03.03.2020 11:42 7,1 C 10,6 C 7,2 C 83 % 1003,0 hPa 0,0 l/m 2 min 0 min 313 W/m 6,4 km/h (2 Bft) 91,49 %
03.03.2020 11:44 7,2 C 12,2 C 7,2 C 84 % 1002,9 hPa 0,0 l/m 2 min 0 min 694 W/m 6,4 km/h (2 Bft) 91,49 %
03.03.2020 11:46 7,3 C 10,6 C 7,2 C 84 % 1002,9 hPa 0,0 l/m 2 min 0 min 677 W/m 19,3 km/h (3 Bft) 93,62 %
03.03.2020 11:48 7,4 C 9,4 C 7,2 C 83 % 1002,9 hPa 0,0 l/m 2 min 0 min 462 W/m 19,3 km/h (3 Bft) 95,65 %
03.03.2020 11:50 7,4 C 8,9 C 7,2 C 83 % 1002,9 hPa 0,0 l/m 0 min 0 min 192 W/m 19,3 km/h (3 Bft) 93,62 %
03.03.2020 11:52 7,4 C 7,8 C 7,2 C 82 % 1002,9 hPa 0,0 l/m 0 min 0 min 244 W/m 29,0 km/h (5 Bft) 91,49 %
03.03.2020 11:54 7,3 C 8,3 C 7,2 C 81 % 1003,0 hPa 0,0 l/m 2 min 0 min 308 W/m 22,5 km/h (4 Bft) 93,62 %
03.03.2020 11:56 7,3 C 8,9 C 7,2 C 81 % 1003,0 hPa 0,0 l/m 2 min 0 min 260 W/m 22,5 km/h (4 Bft) 93,62 %
03.03.2020 11:58 7,3 C 7,8 C 7,2 C 81 % 1003,0 hPa 0,0 l/m 0 min 0 min 253 W/m 25,7 km/h (4 Bft) 95,74 %
03.03.2020 12:00 7,3 C 7,8 C 7,2 C 81 % 1003,1 hPa 0,0 l/m 0 min 0 min 229 W/m 19,3 km/h (3 Bft) 95,65 %
03.03.2020 12:02 7,3 C 7,8 C 7,2 C 81 % 1003,1 hPa 0,0 l/m 2 min 0 min 274 W/m 22,5 km/h (4 Bft) 95,74 %
03.03.2020 12:04 7,3 C 7,2 C 7,2 C 81 % 1003,1 hPa 0,0 l/m 2 min 0 min 273 W/m 25,7 km/h (4 Bft) 97,87 %
03.03.2020 12:08 7,2 C 7,8 C 6,7 C 80 % 1003,1 hPa 0,0 l/m 4 min 0 min 261 W/m 25,7 km/h (4 Bft) 96,81 %
03.03.2020 12:10 7,2 C 7,8 C 7,2 C 81 % 1003,1 hPa 0,0 l/m 0 min 0 min 241 W/m 12,9 km/h (3 Bft) 97,87 %
03.03.2020 12:12 7,2 C 9,4 C 7,8 C 81 % 1003,1 hPa 0,0 l/m 0 min 0 min 253 W/m 12,9 km/h (3 Bft) 95,65 %
03.03.2020 12:14 7,2 C 10,6 C 7,8 C 82 % 1003,1 hPa 0,0 l/m 0 min 0 min 255 W/m 19,3 km/h (3 Bft) 97,87 %
03.03.2020 12:16 7,3 C 9,4 C 7,8 C 82 % 1003,1 hPa 0,0 l/m 2 min 0 min 304 W/m 19,3 km/h (3 Bft) 95,74 %
03.03.2020 12:18 7,3 C 10,6 C 7,8 C 82 % 1003,1 hPa 0,0 l/m 2 min 0 min 332 W/m 32,2 km/h (5 Bft) 97,87 %
03.03.2020 12:20 7,4 C 11,7 C 7,8 C 81 % 1003,1 hPa 0,0 l/m 2 min 0 min 325 W/m 22,5 km/h (4 Bft) 95,74 %
03.03.2020 12:22 7,5 C 10,6 C 7,8 C 81 % 1003,1 hPa 0,0 l/m 2 min 0 min 325 W/m 19,3 km/h (3 Bft) 51,22 %
03.03.2020 12:24 7,6 C 10,0 C 8,3 C 81 % 1003,1 hPa 0,0 l/m 2 min 0 min 278 W/m 29,0 km/h (5 Bft) 97,87 %
03.03.2020 12:26 7,6 C 10,0 C 8,3 C 80 % 1003,2 hPa 0,0 l/m 2 min 0 min 300 W/m 32,2 km/h (5 Bft) 97,87 %
03.03.2020 12:28 7,7 C 10,0 C 7,8 C 80 % 1003,2 hPa 0,0 l/m 0 min 0 min 241 W/m 16,1 km/h (3 Bft) 97,87 %
03.03.2020 12:30 7,7 C 10,0 C 7,8 C 80 % 1003,3 hPa 0,0 l/m 0 min 0 min 244 W/m 22,5 km/h (4 Bft) 97,87 %
03.03.2020 12:32 7,7 C 10,0 C 7,8 C 79 % 1003,2 hPa 0,0 l/m 2 min 0 min 464 W/m 25,7 km/h (4 Bft) 97,87 %
03.03.2020 12:34 7,7 C 9,4 C 7,8 C 79 % 1003,2 hPa 0,0 l/m 2 min 0 min 375 W/m 29,0 km/h (5 Bft) 97,87 %
03.03.2020 12:36 7,7 C 8,9 C 7,8 C 78 % 1003,3 hPa 0,0 l/m 2 min 0 min 346 W/m 22,5 km/h (4 Bft) 97,83 %
03.03.2020 12:38 7,7 C 8,3 C 7,8 C 78 % 1003,3 hPa 0,0 l/m 2 min 0 min 296 W/m 22,5 km/h (4 Bft) 97,87 %
03.03.2020 12:40 7,6 C 7,8 C 7,2 C 79 % 1003,3 hPa 0,0 l/m 2 min 0 min 272 W/m 25,7 km/h (4 Bft) 97,87 %
03.03.2020 12:42 7,6 C 7,8 C 7,2 C 78 % 1003,3 hPa 0,0 l/m 0 min 0 min 260 W/m 22,5 km/h (4 Bft) 97,87 %
03.03.2020 12:44 7,6 C 7,8 C 7,2 C 78 % 1003,3 hPa 0,0 l/m 0 min 0 min 262 W/m 19,3 km/h (3 Bft) 97,87 %
03.03.2020 12:46 7,6 C 8,3 C 7,2 C 78 % 1003,3 hPa 0,0 l/m 0 min 0 min 261 W/m 22,5 km/h (4 Bft) 95,65 %
03.03.2020 12:48 7,6 C 8,9 C 8,3 C 78 % 1003,3 hPa 0,0 l/m 2 min 0 min 274 W/m 25,7 km/h (4 Bft) 97,87 %
03.03.2020 12:50 7,6 C 10,0 C 10,0 C 79 % 1003,3 hPa 0,0 l/m 2 min 0 min 318 W/m 25,7 km/h (4 Bft) 97,87 %
03.03.2020 12:52 7,6 C 9,4 C 9,4 C 78 % 1003,3 hPa 0,0 l/m 2 min 0 min 318 W/m 19,3 km/h (3 Bft) 97,87 %
03.03.2020 12:54 7,6 C 8,9 C 8,9 C 79 % 1003,2 hPa 0,0 l/m 2 min 0 min 273 W/m 22,5 km/h (4 Bft) 97,87 %
03.03.2020 12:56 7,6 C 7,8 C 7,8 C 79 % 1003,3 hPa 0,0 l/m 0 min 0 min 222 W/m 29,0 km/h (5 Bft) 97,87 %
03.03.2020 12:58 7,6 C 7,8 C 7,2 C 78 % 1003,2 hPa 0,0 l/m 0 min 0 min 215 W/m 19,3 km/h (3 Bft) 97,83 %
03.03.2020 13:00 7,6 C 7,8 C 7,2 C 78 % 1003,2 hPa 0,0 l/m 0 min 0 min 203 W/m 9,7 km/h (2 Bft) 97,87 %
03.03.2020 13:02 7,6 C 7,8 C 7,2 C 79 % 1003,2 hPa 0,0 l/m 0 min 0 min 201 W/m 12,9 km/h (3 Bft) 97,87 %
03.03.2020 13:04 7,6 C 7,8 C 7,2 C 79 % 1003,3 hPa 0,0 l/m 0 min 0 min 201 W/m 22,5 km/h (4 Bft) 97,87 %
03.03.2020 13:06 7,6 C 8,3 C 8,3 C 79 % 1003,3 hPa 0,0 l/m 0 min 0 min 180 W/m 22,5 km/h (4 Bft) 97,87 %
03.03.2020 13:08 7,5 C 10,0 C 10,0 C 79 % 1003,3 hPa 0,0 l/m 0 min 0 min 181 W/m 22,5 km/h (4 Bft) 97,87 %
03.03.2020 13:10 7,5 C 8,3 C 8,3 C 79 % 1003,3 hPa 0,0 l/m 0 min 0 min 178 W/m 19,3 km/h (3 Bft) 97,83 %
03.03.2020 13:12 7,5 C 8,9 C 8,9 C 79 % 1003,3 hPa 0,0 l/m 0 min 0 min 173 W/m 16,1 km/h (3 Bft) 97,87 %
03.03.2020 13:14 7,6 C 10,6 C 10,0 C 79 % 1003,2 hPa 0,0 l/m 2 min 0 min 545 W/m 22,5 km/h (4 Bft) 100,00 %
03.03.2020 13:16 7,6 C 9,4 C 8,3 C 79 % 1003,2 hPa 0,0 l/m 2 min 0 min 588 W/m 19,3 km/h (3 Bft) 97,87 %
03.03.2020 13:18 7,6 C 8,3 C 7,8 C 78 % 1003,2 hPa 0,0 l/m 0 min 0 min 93 W/m 12,9 km/h (3 Bft) 97,87 %
03.03.2020 13:20 7,6 C 7,2 C 7,2 C 78 % 1003,2 hPa 0,0 l/m 0 min 0 min 103 W/m 16,1 km/h (3 Bft) 100,00 %
03.03.2020 13:22 7,5 C 7,2 C 6,7 C 78 % 1003,2 hPa 0,0 l/m 0 min 0 min 105 W/m 19,3 km/h (3 Bft) 100,00 %
03.03.2020 13:24 7,4 C 6,7 C 6,7 C 78 % 1003,2 hPa 0,0 l/m 0 min 0 min 100 W/m 16,1 km/h (3 Bft) 100,00 %
03.03.2020 13:26 7,4 C 6,7 C 6,7 C 78 % 1003,2 hPa 0,0 l/m 0 min 0 min 103 W/m 16,1 km/h (3 Bft) 100,00 %
03.03.2020 13:28 7,4 C 6,7 C 6,7 C 78 % 1003,2 hPa 0,0 l/m 0 min 0 min 91 W/m 6,4 km/h (2 Bft) 100,00 %
03.03.2020 13:30 7,3 C 6,7 C 6,7 C 79 % 1003,1 hPa 0,0 l/m 0 min 0 min 105 W/m 16,1 km/h (3 Bft) 100,00 %
03.03.2020 13:32 7,3 C 7,2 C 6,7 C 79 % 1003,1 hPa 0,0 l/m 0 min 0 min 123 W/m 16,1 km/h (3 Bft) 100,00 %
03.03.2020 13:34 7,3 C 7,2 C 6,7 C 79 % 1003,1 hPa 0,0 l/m 0 min 0 min 108 W/m 12,9 km/h (3 Bft) 97,87 %
03.03.2020 13:36 7,3 C 7,2 C 6,1 C 79 % 1003,1 hPa 0,0 l/m 0 min 0 min 93 W/m 12,9 km/h (3 Bft) 100,00 %
03.03.2020 13:38 7,2 C 6,7 C 6,1 C 79 % 1003,1 hPa 0,0 l/m 0 min 0 min 79 W/m 9,7 km/h (2 Bft) 95,74 %
03.03.2020 13:40 7,2 C 7,2 C 6,1 C 79 % 1003,1 hPa 0,0 l/m 0 min 0 min 98 W/m 3,2 km/h (1 Bft) 95,74 %
03.03.2020 13:42 7,2 C 7,2 C 6,7 C 79 % 1003,1 hPa 0,0 l/m 0 min 0 min 123 W/m 12,9 km/h (3 Bft) 91,49 %
03.03.2020 13:44 7,2 C 7,8 C 6,7 C 78 % 1003,1 hPa 0,0 l/m 0 min 0 min 150 W/m 6,4 km/h (2 Bft) 97,83 %
03.03.2020 13:46 7,2 C 7,8 C 6,7 C 79 % 1003,0 hPa 0,0 l/m 0 min 0 min 161 W/m 3,2 km/h (1 Bft) 97,87 %
03.03.2020 13:48 7,2 C 7,8 C 6,7 C 79 % 1003,1 hPa 0,0 l/m 0 min 0 min 155 W/m 12,9 km/h (3 Bft) 97,87 %
03.03.2020 13:50 7,2 C 7,8 C 6,7 C 79 % 1003,1 hPa 0,0 l/m 0 min 0 min 162 W/m 6,4 km/h (2 Bft) 97,87 %
03.03.2020 13:52 7,2 C 7,2 C 6,7 C 79 % 1003,3 hPa 0,0 l/m 0 min 0 min 149 W/m 16,1 km/h (3 Bft) 97,87 %
03.03.2020 13:54 7,2 C 8,3 C 6,7 C 79 % 1003,3 hPa 0,0 l/m 0 min 0 min 128 W/m 19,3 km/h (3 Bft) 97,87 %
03.03.2020 13:56 7,2 C 8,9 C 6,7 C 78 % 1003,2 hPa 0,0 l/m 0 min 0 min 114 W/m 12,9 km/h (3 Bft) 97,83 %
03.03.2020 13:58 7,2 C 8,3 C 6,7 C 78 % 1003,2 hPa 0,0 l/m 0 min 0 min 94 W/m 12,9 km/h (3 Bft) 97,87 %
03.03.2020 14:00 7,3 C 7,2 C 6,7 C 78 % 1003,1 hPa 0,0 l/m 0 min 0 min 75 W/m 12,9 km/h (3 Bft) 95,74 %
03.03.2020 14:02 7,3 C 7,2 C 6,1 C 78 % 1003,2 hPa 0,0 l/m 0 min 0 min 80 W/m 16,1 km/h (3 Bft) 95,74 %
03.03.2020 14:04 7,3 C 9,4 C 6,7 C 78 % 1003,3 hPa 0,0 l/m 0 min 0 min 136 W/m 12,9 km/h (3 Bft) 95,74 %
03.03.2020 14:06 7,3 C 11,1 C 7,2 C 78 % 1003,2 hPa 0,0 l/m 2 min 0 min 608 W/m 19,3 km/h (3 Bft) 93,62 %
03.03.2020 14:08 7,4 C 11,7 C 7,2 C 78 % 1003,2 hPa 0,0 l/m 2 min 0 min 608 W/m 16,1 km/h (3 Bft) 93,48 %
03.03.2020 14:10 7,6 C 12,2 C 7,8 C 78 % 1003,2 hPa 0,0 l/m 2 min 0 min 556 W/m 12,9 km/h (3 Bft) 93,62 %
03.03.2020 14:12 7,7 C 12,2 C 7,8 C 78 % 1003,2 hPa 0,0 l/m 2 min 0 min 565 W/m 25,7 km/h (4 Bft) 93,62 %
03.03.2020 14:14 7,8 C 12,8 C 7,8 C 77 % 1003,2 hPa 0,0 l/m 2 min 0 min 593 W/m 19,3 km/h (3 Bft) 95,74 %
03.03.2020 14:16 7,9 C 13,3 C 7,8 C 77 % 1003,2 hPa 0,0 l/m 2 min 0 min 614 W/m 16,1 km/h (3 Bft) 93,62 %
03.03.2020 14:18 8,1 C 12,8 C 8,3 C 77 % 1003,2 hPa 0,0 l/m 2 min 0 min 631 W/m 22,5 km/h (4 Bft) 93,62 %
03.03.2020 14:20 8,2 C 12,2 C 8,3 C 75 % 1003,3 hPa 0,0 l/m 2 min 0 min 635 W/m 29,0 km/h (5 Bft) 97,83 %
03.03.2020 14:22 8,3 C 12,8 C 7,8 C 74 % 1003,2 hPa 0,0 l/m 2 min 0 min 616 W/m 22,5 km/h (4 Bft) 97,87 %
03.03.2020 14:24 8,3 C 12,2 C 7,8 C 73 % 1003,3 hPa 0,0 l/m 2 min 0 min 579 W/m 25,7 km/h (4 Bft) 97,87 %
03.03.2020 14:26 8,4 C 12,8 C 7,8 C 74 % 1003,3 hPa 0,0 l/m 2 min 0 min 543 W/m 16,1 km/h (3 Bft) 97,87 %
03.03.2020 14:28 8,6 C 13,9 C 8,3 C 74 % 1003,3 hPa 0,0 l/m 2 min 0 min 545 W/m 12,9 km/h (3 Bft) 97,87 %
03.03.2020 14:30 8,6 C 13,3 C 8,3 C 74 % 1003,3 hPa 0,0 l/m 2 min 0 min 541 W/m 19,3 km/h (3 Bft) 97,87 %
03.03.2020 14:32 8,7 C 13,3 C 8,3 C 73 % 1003,4 hPa 0,0 l/m 2 min 0 min 539 W/m 22,5 km/h (4 Bft) 97,83 %
03.03.2020 14:34 8,8 C 12,8 C 7,8 C 73 % 1003,4 hPa 0,0 l/m 2 min 0 min 554 W/m 19,3 km/h (3 Bft) 97,87 %
03.03.2020 14:36 8,8 C 13,3 C 8,3 C 73 % 1003,4 hPa 0,0 l/m 2 min 0 min 573 W/m 6,4 km/h (2 Bft) 95,74 %
03.03.2020 14:38 8,9 C 13,9 C 8,9 C 73 % 1003,4 hPa 0,0 l/m 2 min 0 min 617 W/m 19,3 km/h (3 Bft) 97,87 %
03.03.2020 14:40 9,0 C 14,4 C 8,9 C 73 % 1003,4 hPa 0,0 l/m 2 min 0 min 470 W/m 12,9 km/h (3 Bft) 97,87 %
03.03.2020 14:42 9,1 C 13,3 C 8,9 C 72 % 1003,4 hPa 0,0 l/m 2 min 0 min 634 W/m 16,1 km/h (3 Bft) 100,00 %
03.03.2020 14:44 9,1 C 11,1 C 8,9 C 71 % 1003,5 hPa 0,0 l/m 2 min 0 min 395 W/m 16,1 km/h (3 Bft) 100,00 %
03.03.2020 14:46 9,2 C 10,0 C 8,3 C 71 % 1003,5 hPa 0,0 l/m 0 min 0 min 126 W/m 12,9 km/h (3 Bft) 100,00 %
03.03.2020 14:48 9,1 C 8,9 C 7,8 C 71 % 1003,6 hPa 0,0 l/m 0 min 0 min 106 W/m 16,1 km/h (3 Bft) 100,00 %
03.03.2020 14:50 9,0 C 7,8 C 7,2 C 71 % 1003,6 hPa 0,0 l/m 0 min 0 min 102 W/m 19,3 km/h (3 Bft) 100,00 %
03.03.2020 14:52 8,9 C 9,4 C 7,2 C 71 % 1003,6 hPa 0,0 l/m 0 min 0 min 136 W/m 12,9 km/h (3 Bft) 100,00 %
03.03.2020 14:54 8,8 C 11,1 C 7,8 C 71 % 1003,6 hPa 0,0 l/m 2 min 0 min 470 W/m 16,1 km/h (3 Bft) 97,83 %
03.03.2020 14:56 8,8 C 10,0 C 7,8 C 72 % 1003,6 hPa 0,0 l/m 2 min 0 min 388 W/m 16,1 km/h (3 Bft) 100,00 %
03.03.2020 14:58 8,8 C 8,9 C 7,8 C 72 % 1003,6 hPa 0,0 l/m 0 min 0 min 112 W/m 19,3 km/h (3 Bft) 97,87 %
03.03.2020 15:00 8,7 C 8,3 C 7,2 C 72 % 1003,6 hPa 0,0 l/m 0 min 0 min 70 W/m 12,9 km/h (3 Bft) 100,00 %
03.03.2020 15:02 8,6 C 7,8 C 6,7 C 72 % 1003,6 hPa 0,0 l/m 0 min 0 min 56 W/m 16,1 km/h (3 Bft) 100,00 %
03.03.2020 15:04 8,5 C 7,2 C 6,7 C 72 % 1003,6 hPa 0,0 l/m 0 min 0 min 62 W/m 22,5 km/h (4 Bft) 100,00 %
03.03.2020 15:06 8,4 C 8,3 C 6,7 C 72 % 1003,6 hPa 0,0 l/m 0 min 0 min 100 W/m 29,0 km/h (5 Bft) 100,00 %
03.03.2020 15:08 8,3 C 10,6 C 7,2 C 73 % 1003,6 hPa 0,0 l/m 2 min 0 min 480 W/m 19,3 km/h (3 Bft) 100,00 %
03.03.2020 15:10 8,3 C 11,7 C 7,8 C 73 % 1003,6 hPa 0,0 l/m 2 min 0 min 490 W/m 16,1 km/h (3 Bft) 100,00 %
03.03.2020 15:12 8,3 C 11,7 C 7,8 C 73 % 1003,6 hPa 0,0 l/m 2 min 0 min 473 W/m 29,0 km/h (5 Bft) 100,00 %
03.03.2020 15:14 8,3 C 11,7 C 7,8 C 73 % 1003,6 hPa 0,0 l/m 2 min 0 min 459 W/m 19,3 km/h (3 Bft) 100,00 %
03.03.2020 15:16 8,4 C 12,2 C 7,8 C 73 % 1003,6 hPa 0,0 l/m 2 min 0 min 455 W/m 19,3 km/h (3 Bft) 100,00 %
03.03.2020 15:18 8,4 C 10,6 C 7,8 C 73 % 1003,6 hPa 0,0 l/m 2 min 0 min 314 W/m 22,5 km/h (4 Bft) 97,83 %
03.03.2020 15:20 8,4 C 11,7 C 7,8 C 74 % 1003,6 hPa 0,0 l/m 2 min 0 min 274 W/m 12,9 km/h (3 Bft) 100,00 %
03.03.2020 15:22 8,5 C 11,7 C 7,8 C 74 % 1003,7 hPa 0,0 l/m 2 min 0 min 455 W/m 22,5 km/h (4 Bft) 100,00 %
03.03.2020 15:24 8,6 C 10,6 C 7,8 C 74 % 1003,7 hPa 0,0 l/m 2 min 0 min 312 W/m 16,1 km/h (3 Bft) 100,00 %
03.03.2020 15:26 8,6 C 11,7 C 7,8 C 74 % 1003,6 hPa 0,0 l/m 0 min 0 min 134 W/m 6,4 km/h (2 Bft) 97,87 %
03.03.2020 15:28 8,6 C 12,2 C 7,8 C 74 % 1003,6 hPa 0,0 l/m 2 min 0 min 441 W/m 6,4 km/h (2 Bft) 97,87 %
03.03.2020 15:30 8,7 C 12,8 C 7,8 C 75 % 1003,6 hPa 0,0 l/m 2 min 0 min 424 W/m 6,4 km/h (2 Bft) 100,00 %
03.03.2020 15:32 8,7 C 12,8 C 7,8 C 75 % 1003,6 hPa 0,0 l/m 2 min 0 min 416 W/m 12,9 km/h (3 Bft) 95,74 %
03.03.2020 15:34 8,8 C 13,3 C 8,3 C 74 % 1003,6 hPa 0,0 l/m 2 min 0 min 416 W/m 9,7 km/h (2 Bft) 95,74 %
03.03.2020 15:36 8,8 C 13,3 C 8,9 C 75 % 1003,7 hPa 0,0 l/m 2 min 0 min 418 W/m 6,4 km/h (2 Bft) 93,62 %
03.03.2020 15:38 8,9 C 11,7 C 8,3 C 74 % 1003,7 hPa 0,0 l/m 2 min 0 min 400 W/m 6,4 km/h (2 Bft) 100,00 %
03.03.2020 15:40 8,9 C 11,7 C 8,3 C 73 % 1003,7 hPa 0,0 l/m 2 min 0 min 292 W/m 19,3 km/h (3 Bft) 100,00 %
03.03.2020 15:42 8,9 C 12,2 C 8,3 C 72 % 1003,8 hPa 0,0 l/m 2 min 0 min 392 W/m 19,3 km/h (3 Bft) 100,00 %
03.03.2020 15:44 8,9 C 10,6 C 8,3 C 71 % 1003,7 hPa 0,0 l/m 2 min 0 min 366 W/m 22,5 km/h (4 Bft) 97,87 %
03.03.2020 15:46 8,9 C 9,4 C 7,8 C 71 % 1003,7 hPa 0,0 l/m 2 min 0 min 180 W/m 6,4 km/h (2 Bft) 100,00 %
03.03.2020 15:48 8,9 C 8,3 C 7,2 C 71 % 1003,7 hPa 0,0 l/m 0 min 0 min 95 W/m 22,5 km/h (4 Bft) 100,00 %
03.03.2020 15:50 8,8 C 7,8 C 7,2 C 71 % 1003,8 hPa 0,0 l/m 0 min 0 min 112 W/m 25,7 km/h (4 Bft) 100,00 %
03.03.2020 15:52 8,7 C 7,8 C 7,2 C 71 % 1003,8 hPa 0,0 l/m 0 min 0 min 78 W/m 22,5 km/h (4 Bft) 97,87 %
03.03.2020 15:54 8,7 C 7,2 C 6,7 C 71 % 1003,8 hPa 0,0 l/m 0 min 0 min 64 W/m 12,9 km/h (3 Bft) 100,00 %
03.03.2020 15:56 8,6 C 7,2 C 6,7 C 71 % 1003,8 hPa 0,0 l/m 0 min 0 min 67 W/m 12,9 km/h (3 Bft) 100,00 %
03.03.2020 15:58 8,5 C 7,2 C 6,7 C 72 % 1003,8 hPa 0,0 l/m 0 min 0 min 83 W/m 9,7 km/h (2 Bft) 97,87 %
03.03.2020 16:00 8,4 C 7,2 C 6,7 C 72 % 1003,8 hPa 0,0 l/m 0 min 0 min 98 W/m 9,7 km/h (2 Bft) 95,74 %
03.03.2020 16:02 8,4 C 7,2 C 7,2 C 72 % 1003,8 hPa 0,0 l/m 0 min 0 min 107 W/m 12,9 km/h (3 Bft) 100,00 %
03.03.2020 16:04 8,3 C 7,2 C 7,2 C 73 % 1003,8 hPa 0,0 l/m 0 min 0 min 98 W/m 9,7 km/h (2 Bft) 97,96 %
03.03.2020 16:06 8,3 C 7,2 C 7,2 C 73 % 1003,9 hPa 0,0 l/m 0 min 0 min 103 W/m 19,3 km/h (3 Bft) 97,87 %
03.03.2020 16:08 8,2 C 7,8 C 7,2 C 73 % 1003,9 hPa 0,0 l/m 0 min 0 min 107 W/m 19,3 km/h (3 Bft) 95,74 %
03.03.2020 16:10 8,1 C 7,2 C 7,2 C 73 % 1003,9 hPa 0,0 l/m 0 min 0 min 119 W/m 25,7 km/h (4 Bft) 91,49 %
03.03.2020 16:12 8,1 C 7,8 C 7,2 C 73 % 1003,9 hPa 0,0 l/m 0 min 0 min 142 W/m 16,1 km/h (3 Bft) 97,87 %
03.03.2020 16:14 8,1 C 8,3 C 7,8 C 73 % 1004,0 hPa 0,0 l/m 2 min 0 min 243 W/m 16,1 km/h (3 Bft) 97,83 %
03.03.2020 16:16 8,1 C 8,9 C 8,3 C 74 % 1004,0 hPa 0,0 l/m 2 min 0 min 211 W/m 16,1 km/h (3 Bft) 95,74 %
03.03.2020 16:18 8,0 C 8,9 C 8,3 C 74 % 1003,9 hPa 0,0 l/m 2 min 0 min 167 W/m 16,1 km/h (3 Bft) 93,62 %
03.03.2020 16:20 8,0 C 10,6 C 9,4 C 74 % 1003,9 hPa 0,0 l/m 2 min 0 min 177 W/m 6,4 km/h (2 Bft) 93,62 %
03.03.2020 16:22 8,1 C 11,1 C 10,0 C 74 % 1004,0 hPa 0,0 l/m 2 min 0 min 342 W/m 19,3 km/h (3 Bft) 91,49 %
03.03.2020 16:24 8,1 C 11,1 C 10,6 C 74 % 1004,0 hPa 0,0 l/m 2 min 0 min 347 W/m 19,3 km/h (3 Bft) 93,62 %
03.03.2020 16:26 8,2 C 10,6 C 9,4 C 74 % 1003,9 hPa 0,0 l/m 2 min 0 min 259 W/m 19,3 km/h (3 Bft) 93,48 %
03.03.2020 16:28 8,2 C 8,9 C 8,3 C 73 % 1004,1 hPa 0,0 l/m 2 min 0 min 155 W/m 22,5 km/h (4 Bft) 93,62 %
03.03.2020 16:30 8,2 C 9,4 C 7,8 C 73 % 1004,1 hPa 0,0 l/m 0 min 0 min 115 W/m 22,5 km/h (4 Bft) 93,62 %
03.03.2020 16:32 8,2 C 9,4 C 7,8 C 73 % 1004,1 hPa 0,0 l/m 2 min 0 min 137 W/m 16,1 km/h (3 Bft) 89,36 %
03.03.2020 16:34 8,3 C 10,6 C 7,2 C 73 % 1004,1 hPa 0,0 l/m 2 min 0 min 251 W/m 12,9 km/h (3 Bft) 87,23 %
03.03.2020 16:36 8,3 C 10,6 C 7,2 C 73 % 1004,1 hPa 0,0 l/m 2 min 0 min 246 W/m 12,9 km/h (3 Bft) 91,30 %
03.03.2020 16:38 8,3 C 11,1 C 7,2 C 73 % 1004,1 hPa 0,0 l/m 2 min 0 min 299 W/m 12,9 km/h (3 Bft) 93,62 %
03.03.2020 16:40 8,3 C 11,1 C 7,8 C 73 % 1004,1 hPa 0,0 l/m 2 min 0 min 316 W/m 16,1 km/h (3 Bft) 93,62 %
03.03.2020 16:42 8,4 C 11,1 C 7,8 C 73 % 1004,1 hPa 0,0 l/m 2 min 0 min 284 W/m 9,7 km/h (2 Bft) 93,62 %
03.03.2020 16:44 8,4 C 10,6 C 7,8 C 73 % 1004,1 hPa 0,0 l/m 2 min 0 min 249 W/m 16,1 km/h (3 Bft) 93,62 %
03.03.2020 16:46 8,4 C 10,0 C 7,2 C 72 % 1004,1 hPa 0,0 l/m 2 min 0 min 212 W/m 12,9 km/h (3 Bft) 91,49 %
03.03.2020 16:48 8,5 C 10,0 C 7,2 C 72 % 1004,1 hPa 0,0 l/m 2 min 0 min 178 W/m 16,1 km/h (3 Bft) 95,65 %
03.03.2020 16:50 8,5 C 10,0 C 7,2 C 72 % 1004,1 hPa 0,0 l/m 2 min 0 min 191 W/m 22,5 km/h (4 Bft) 95,74 %
03.03.2020 16:52 8,5 C 10,0 C 7,2 C 72 % 1004,2 hPa 0,0 l/m 2 min 0 min 184 W/m 19,3 km/h (3 Bft) 89,36 %
03.03.2020 16:54 8,5 C 9,4 C 7,2 C 72 % 1004,2 hPa 0,0 l/m 2 min 0 min 183 W/m 16,1 km/h (3 Bft) 95,74 %
03.03.2020 16:56 8,5 C 9,4 C 7,8 C 72 % 1004,2 hPa 0,0 l/m 2 min 0 min 168 W/m 22,5 km/h (4 Bft) 95,74 %
03.03.2020 16:58 8,4 C 9,4 C 7,2 C 72 % 1004,2 hPa 0,0 l/m 2 min 0 min 148 W/m 6,4 km/h (2 Bft) 93,62 %
03.03.2020 17:00 8,4 C 9,4 C 7,2 C 72 % 1004,2 hPa 0,0 l/m 2 min 0 min 133 W/m 9,7 km/h (2 Bft) 97,83 %
03.03.2020 17:02 8,4 C 9,4 C 6,7 C 72 % 1004,2 hPa 0,0 l/m 0 min 0 min 74 W/m 6,4 km/h (2 Bft) 93,62 %
03.03.2020 17:04 8,4 C 9,4 C 6,7 C 72 % 1004,3 hPa 0,0 l/m 0 min 0 min 83 W/m 12,9 km/h (3 Bft) 95,74 %
03.03.2020 17:06 8,3 C 8,9 C 6,7 C 72 % 1004,3 hPa 0,0 l/m 2 min 0 min 93 W/m 3,2 km/h (1 Bft) 97,87 %
03.03.2020 17:08 8,3 C 8,3 C 6,7 C 73 % 1004,4 hPa 0,0 l/m 2 min 0 min 88 W/m 16,1 km/h (3 Bft) 93,62 %
03.03.2020 17:10 8,2 C 7,8 C 6,7 C 73 % 1004,4 hPa 0,0 l/m 0 min 0 min 47 W/m 12,9 km/h (3 Bft) 93,62 %
03.03.2020 17:12 8,2 C 7,2 C 6,1 C 73 % 1004,4 hPa 0,0 l/m 0 min 0 min 42 W/m 12,9 km/h (3 Bft) 95,74 %
03.03.2020 17:14 8,1 C 7,2 C 6,1 C 73 % 1004,4 hPa 0,0 l/m 0 min 0 min 40 W/m 9,7 km/h (2 Bft) 97,83 %
03.03.2020 17:16 8,1 C 7,2 C 6,1 C 73 % 1004,5 hPa 0,0 l/m 0 min 0 min 35 W/m 12,9 km/h (3 Bft) 97,87 %
03.03.2020 17:18 8,0 C 7,2 C 6,1 C 73 % 1004,5 hPa 0,0 l/m 0 min 0 min 33 W/m 6,4 km/h (2 Bft) 97,87 %
03.03.2020 17:20 8,0 C 6,7 C 6,1 C 74 % 1004,5 hPa 0,0 l/m 0 min 0 min 32 W/m 3,2 km/h (1 Bft) 95,74 %
03.03.2020 17:22 7,9 C 6,7 C 6,1 C 74 % 1004,6 hPa 0,0 l/m 0 min 0 min 33 W/m 0,0 km/h (0 Bft) 95,74 %
03.03.2020 17:24 7,9 C 6,7 C 6,1 C 74 % 1004,6 hPa 0,0 l/m 0 min 0 min 33 W/m 0,0 km/h (0 Bft) 91,30 %
03.03.2020 17:26 7,8 C 6,7 C 5,6 C 75 % 1004,6 hPa 0,0 l/m 0 min 0 min 34 W/m 0,0 km/h (0 Bft) 95,74 %
03.03.2020 17:28 7,8 C 6,7 C 5,6 C 75 % 1004,6 hPa 0,0 l/m 0 min 0 min 32 W/m 0,0 km/h (0 Bft) 97,87 %
03.03.2020 17:30 7,8 C 6,7 C 5,6 C 75 % 1004,7 hPa 0,0 l/m 0 min 0 min 30 W/m 0,0 km/h (0 Bft) 97,87 %
03.03.2020 17:32 7,8 C 6,1 C 5,6 C 75 % 1004,7 hPa 0,0 l/m 0 min 0 min 29 W/m 3,2 km/h (1 Bft) 100,00 %
03.03.2020 17:34 7,7 C 6,1 C 5,6 C 75 % 1004,7 hPa 0,0 l/m 0 min 0 min 28 W/m 9,7 km/h (2 Bft) 97,87 %
03.03.2020 17:36 7,6 C 6,1 C 5,6 C 75 % 1004,7 hPa 0,0 l/m 0 min 0 min 27 W/m 9,7 km/h (2 Bft) 95,65 %
03.03.2020 17:38 7,6 C 6,1 C 5,6 C 76 % 1004,8 hPa 0,0 l/m 0 min 0 min 26 W/m 9,7 km/h (2 Bft) 93,62 %
03.03.2020 17:40 7,5 C 6,1 C 5,6 C 76 % 1004,8 hPa 0,0 l/m 0 min 0 min 25 W/m 6,4 km/h (2 Bft) 95,74 %
03.03.2020 17:42 7,4 C 6,1 C 5,6 C 76 % 1004,8 hPa 0,0 l/m 0 min 0 min 23 W/m 0,0 km/h (0 Bft) 97,87 %
03.03.2020 17:44 7,4 C 6,1 C 5,6 C 76 % 1004,9 hPa 0,0 l/m 0 min 0 min 21 W/m 0,0 km/h (0 Bft) 95,74 %
03.03.2020 17:46 7,3 C 6,1 C 5,6 C 76 % 1004,9 hPa 0,0 l/m 0 min 0 min 21 W/m 0,0 km/h (0 Bft) 100,00 %
03.03.2020 17:48 7,3 C 6,1 C 5,6 C 76 % 1005,0 hPa 0,0 l/m 0 min 0 min 21 W/m 0,0 km/h (0 Bft) 97,83 %
03.03.2020 17:50 7,3 C 6,1 C 5,0 C 77 % 1005,0 hPa 0,0 l/m 0 min 0 min 19 W/m 9,7 km/h (2 Bft) 100,00 %
03.03.2020 17:52 7,2 C 6,1 C 5,0 C 77 % 1005,1 hPa 0,0 l/m 0 min 0 min 18 W/m 3,2 km/h (1 Bft) 97,87 %
03.03.2020 17:54 7,2 C 5,6 C 5,0 C 77 % 1005,1 hPa 0,0 l/m 0 min 0 min 17 W/m 3,2 km/h (1 Bft) 98,00 %
03.03.2020 17:56 7,1 C 5,6 C 5,0 C 77 % 1005,1 hPa 0,0 l/m 0 min 0 min 14 W/m 0,0 km/h (0 Bft) 100,00 %
03.03.2020 17:58 7,1 C 5,6 C 5,0 C 77 % 1005,1 hPa 0,0 l/m 0 min 0 min 12 W/m 0,0 km/h (0 Bft) 100,00 %
03.03.2020 18:00 7,1 C 5,6 C 5,0 C 78 % 1005,2 hPa 0,0 l/m 0 min 0 min 11 W/m 9,7 km/h (2 Bft) 97,87 %
03.03.2020 18:02 7,0 C 5,6 C 5,0 C 78 % 1005,2 hPa 0,0 l/m 0 min 0 min 11 W/m 3,2 km/h (1 Bft) 100,00 %
03.03.2020 18:04 6,9 C 5,6 C 5,0 C 78 % 1005,3 hPa 0,0 l/m 0 min 0 min 11 W/m 6,4 km/h (2 Bft) 100,00 %
03.03.2020 18:08 6,8 C 5,6 C 5,0 C 78 % 1005,4 hPa 0,0 l/m 0 min 0 min 9 W/m 12,9 km/h (3 Bft) 100,00 %
03.03.2020 18:10 6,8 C 5,6 C 5,0 C 78 % 1005,5 hPa 0,0 l/m 0 min 0 min 7 W/m 6,4 km/h (2 Bft) 95,65 %
03.03.2020 18:12 6,7 C 5,6 C 5,0 C 78 % 1005,5 hPa 0,0 l/m 0 min 0 min 7 W/m 0,0 km/h (0 Bft) 100,00 %
03.03.2020 18:14 6,7 C 5,6 C 5,0 C 78 % 1005,5 hPa 0,0 l/m 0 min 0 min 5 W/m 9,7 km/h (2 Bft) 100,00 %
03.03.2020 18:16 6,6 C 5,0 C 5,0 C 78 % 1005,6 hPa 0,0 l/m 0 min 0 min 5 W/m 9,7 km/h (2 Bft) 100,00 %
03.03.2020 18:18 6,6 C 5,0 C 5,0 C 79 % 1005,6 hPa 0,0 l/m 0 min 0 min 5 W/m 9,7 km/h (2 Bft) 100,00 %
03.03.2020 18:20 6,5 C 5,0 C 4,4 C 79 % 1005,6 hPa 0,0 l/m 0 min 0 min 1 W/m 9,7 km/h (2 Bft) 97,87 %
03.03.2020 18:22 6,5 C 5,0 C 4,4 C 79 % 1005,6 hPa 0,0 l/m 0 min 0 min 0 W/m 6,4 km/h (2 Bft) 100,00 %
03.03.2020 18:24 6,4 C 5,0 C 4,4 C 79 % 1005,7 hPa 0,0 l/m 0 min 0 min 0 W/m 6,4 km/h (2 Bft) 100,00 %
03.03.2020 18:26 6,4 C 5,0 C 4,4 C 79 % 1005,7 hPa 0,0 l/m 0 min 0 min 0 W/m 6,4 km/h (2 Bft) 93,62 %
03.03.2020 18:28 6,4 C 5,0 C 4,4 C 79 % 1005,8 hPa 0,0 l/m 0 min 0 min 0 W/m 3,2 km/h (1 Bft) 97,87 %
03.03.2020 18:30 6,3 C 5,0 C 4,4 C 79 % 1005,8 hPa 0,0 l/m 0 min 0 min 0 W/m 3,2 km/h (1 Bft) 65,96 %
03.03.2020 18:32 6,3 C 5,0 C 4,4 C 80 % 1005,9 hPa 0,0 l/m 0 min 0 min 0 W/m 0,0 km/h (0 Bft) 84,78 %
03.03.2020 18:34 6,3 C 5,0 C 4,4 C 80 % 1005,9 hPa 0,0 l/m 0 min 0 min 0 W/m 0,0 km/h (0 Bft) 100,00 %
03.03.2020 18:36 6,2 C 4,4 C 4,4 C 80 % 1005,9 hPa 0,0 l/m 0 min 0 min 0 W/m 9,7 km/h (2 Bft) 95,74 %
03.03.2020 18:38 6,2 C 4,4 C 3,9 C 80 % 1006,0 hPa 0,0 l/m 0 min 0 min 0 W/m 6,4 km/h (2 Bft) 91,49 %
03.03.2020 18:40 6,1 C 4,4 C 3,9 C 80 % 1006,0 hPa 0,0 l/m 0 min 0 min 0 W/m 0,0 km/h (0 Bft) 97,87 %
03.03.2020 18:42 6,1 C 4,4 C 3,9 C 80 % 1006,1 hPa 0,0 l/m 0 min 0 min 0 W/m 3,2 km/h (1 Bft) 95,74 %
03.03.2020 18:44 6,1 C 4,4 C 3,9 C 80 % 1006,2 hPa 0,0 l/m 0 min 0 min 0 W/m 0,0 km/h (0 Bft) 91,30 %
03.03.2020 18:46 6,0 C 4,4 C 3,3 C 80 % 1006,2 hPa 0,0 l/m 0 min 0 min 0 W/m 3,2 km/h (1 Bft) 93,62 %
03.03.2020 18:48 6,0 C 4,4 C 3,3 C 81 % 1006,3 hPa 0,0 l/m 0 min 0 min 0 W/m 3,2 km/h (1 Bft) 93,62 %
03.03.2020 18:50 5,9 C 4,4 C 3,3 C 81 % 1006,3 hPa 0,0 l/m 0 min 0 min 0 W/m 3,2 km/h (1 Bft) 95,74 %
03.03.2020 18:52 5,9 C 4,4 C 3,3 C 81 % 1006,3 hPa 0,0 l/m 0 min 0 min 0 W/m 3,2 km/h (1 Bft) 93,62 %
03.03.2020 18:54 5,8 C 4,4 C 3,3 C 81 % 1006,3 hPa 0,0 l/m 0 min 0 min 0 W/m 3,2 km/h (1 Bft) 95,74 %
03.03.2020 18:56 5,8 C 4,4 C 3,3 C 81 % 1006,3 hPa 0,0 l/m 0 min 0 min 0 W/m 3,2 km/h (1 Bft) 95,65 %
03.03.2020 18:58 5,7 C 4,4 C 3,3 C 81 % 1006,4 hPa 0,0 l/m 0 min 0 min 0 W/m 3,2 km/h (1 Bft) 95,74 %
03.03.2020 19:00 5,7 C 4,4 C 3,3 C 81 % 1006,5 hPa 0,0 l/m 0 min 0 min 0 W/m 0,0 km/h (0 Bft) 95,74 %
03.03.2020 19:02 5,7 C 3,9 C 3,3 C 82 % 1006,5 hPa 0,0 l/m 0 min 0 min 0 W/m 0,0 km/h (0 Bft) 95,74 %
03.03.2020 19:04 5,6 C 3,9 C 2,8 C 81 % 1006,5 hPa 0,0 l/m 0 min 0 min 0 W/m 0,0 km/h (0 Bft) 97,87 %
03.03.2020 19:06 5,6 C 3,9 C 2,8 C 82 % 1006,6 hPa 0,0 l/m 0 min 0 min 0 W/m 0,0 km/h (0 Bft) 95,74 %
03.03.2020 19:08 5,6 C 3,9 C 2,8 C 82 % 1006,6 hPa 0,0 l/m 0 min 0 min 0 W/m 0,0 km/h (0 Bft) 97,83 %
03.03.2020 19:10 5,6 C 3,9 C 2,8 C 82 % 1006,6 hPa 0,0 l/m 0 min 0 min 0 W/m 0,0 km/h (0 Bft) 98,25 %
03.03.2020 19:15 5,4 C 3,9 C 2,2 C 82 % 1006,7 hPa 0,0 l/m 0 min 0 min 0 W/m 0,0 km/h (0 Bft) 97,37 %
03.03.2020 19:20 5,4 C 3,9 C 2,2 C 82 % 1006,7 hPa 0,0 l/m 0 min 0 min 0 W/m 3,2 km/h (1 Bft) 99,12 %
03.03.2020 19:25 5,3 C 3,9 C 2,2 C 82 % 1006,8 hPa 0,0 l/m 0 min 0 min 0 W/m 0,0 km/h (0 Bft) 98,25 %
03.03.2020 19:30 5,2 C 3,9 C 2,2 C 83 % 1006,8 hPa 0,0 l/m 0 min 0 min 0 W/m 3,2 km/h (1 Bft) 99,12 %
03.03.2020 19:35 5,1 C 4,4 C 2,2 C 83 % 1006,9 hPa 0,0 l/m 0 min 0 min 0 W/m 6,4 km/h (2 Bft) 99,12 %
03.03.2020 19:40 5,1 C 3,9 C 2,2 C 84 % 1007,0 hPa 0,0 l/m 0 min 0 min 0 W/m 0,0 km/h (0 Bft) 97,37 %
03.03.2020 19:45 5,0 C 3,9 C 2,2 C 84 % 1007,1 hPa 0,0 l/m 0 min 0 min 0 W/m 0,0 km/h (0 Bft) 99,12 %
03.03.2020 19:50 4,9 C 3,9 C 2,8 C 84 % 1007,1 hPa 0,0 l/m 0 min 0 min 0 W/m 0,0 km/h (0 Bft) 100,00 %
03.03.2020 19:55 4,9 C 3,9 C 3,3 C 85 % 1007,1 hPa 0,0 l/m 0 min 0 min 0 W/m 6,4 km/h (2 Bft) 100,00 %
03.03.2020 20:00 4,9 C 4,4 C 3,3 C 85 % 1007,1 hPa 0,0 l/m 0 min 0 min 0 W/m 3,2 km/h (1 Bft) 100,00 %
03.03.2020 20:18 4,9 C 3,9 C 3,3 C 86 % 1007,3 hPa 0,0 l/m 0 min 0 min 0 W/m 3,2 km/h (1 Bft) 97,67 %
03.03.2020 20:20 4,9 C 3,9 C 3,3 C 86 % 1007,3 hPa 0,0 l/m 0 min 0 min 0 W/m 3,2 km/h (1 Bft) 97,92 %
03.03.2020 20:24 4,8 C 3,9 C 3,3 C 86 % 1007,4 hPa 0,0 l/m 0 min 0 min 0 W/m 3,2 km/h (1 Bft) 97,30 %
03.03.2020 20:26 4,8 C 3,9 C 3,3 C 86 % 1007,4 hPa 0,0 l/m 0 min 0 min 0 W/m 0,0 km/h (0 Bft) 93,75 %
03.03.2020 20:28 4,8 C 3,9 C 3,3 C 86 % 1007,4 hPa 0,0 l/m 0 min 0 min 0 W/m 0,0 km/h (0 Bft) 97,87 %
03.03.2020 20:30 4,8 C 3,9 C 3,3 C 86 % 1007,6 hPa 0,0 l/m 0 min 0 min 0 W/m 6,4 km/h (2 Bft) 97,87 %
03.03.2020 20:32 4,8 C 3,9 C 3,3 C 86 % 1007,7 hPa 0,0 l/m 0 min 0 min 0 W/m 9,7 km/h (2 Bft) 93,62 %
03.03.2020 20:34 4,8 C 3,9 C 3,3 C 86 % 1007,7 hPa 0,0 l/m 0 min 0 min 0 W/m 9,7 km/h (2 Bft) 95,65 %
03.03.2020 20:36 4,8 C 3,9 C 3,3 C 86 % 1007,7 hPa 0,0 l/m 0 min 0 min 0 W/m 16,1 km/h (3 Bft) 95,74 %
03.03.2020 20:38 4,8 C 3,9 C 3,3 C 86 % 1007,7 hPa 0,0 l/m 0 min 0 min 0 W/m 6,4 km/h (2 Bft) 95,74 %
03.03.2020 20:40 4,8 C 3,9 C 3,3 C 87 % 1007,7 hPa 0,0 l/m 0 min 0 min 0 W/m 12,9 km/h (3 Bft) 96,36 %
03.03.2020 20:42 4,8 C 3,9 C 3,3 C 87 % 1007,8 hPa 0,0 l/m 0 min 0 min 0 W/m 16,1 km/h (3 Bft) 93,62 %
03.03.2020 20:44 4,8 C 3,9 C 3,3 C 87 % 1007,8 hPa 0,0 l/m 0 min 0 min 0 W/m 16,1 km/h (3 Bft) 94,74 %
03.03.2020 20:46 4,7 C 3,9 C 3,3 C 87 % 1007,8 hPa 0,0 l/m 0 min 0 min 0 W/m 9,7 km/h (2 Bft) 95,65 %
03.03.2020 20:48 4,7 C 3,9 C 3,3 C 87 % 1007,8 hPa 0,0 l/m 0 min 0 min 0 W/m 0,0 km/h (0 Bft) 95,74 %
03.03.2020 20:50 4,7 C 3,9 C 3,3 C 87 % 1007,9 hPa 0,0 l/m 0 min 0 min 0 W/m 0,0 km/h (0 Bft) 97,87 %
03.03.2020 20:52 4,7 C 3,9 C 3,3 C 87 % 1007,8 hPa 0,0 l/m 0 min 0 min 0 W/m 0,0 km/h (0 Bft) 97,87 %
03.03.2020 20:54 4,7 C 3,9 C 3,3 C 87 % 1007,8 hPa 0,0 l/m 0 min 0 min 0 W/m 0,0 km/h (0 Bft) 97,92 %
03.03.2020 20:56 4,7 C 3,3 C 3,3 C 87 % 1007,8 hPa 0,0 l/m 0 min 0 min 0 W/m 0,0 km/h (0 Bft) 97,87 %
03.03.2020 20:58 4,7 C 3,3 C 2,8 C 87 % 1007,9 hPa 0,0 l/m 0 min 0 min 0 W/m 0,0 km/h (0 Bft) 97,83 %
03.03.2020 21:00 4,7 C 3,3 C 2,8 C 87 % 1007,9 hPa 0,0 l/m 0 min 0 min 0 W/m 0,0 km/h (0 Bft) 97,87 %
03.03.2020 21:02 4,7 C 3,3 C 2,8 C 87 % 1007,9 hPa 0,0 l/m 0 min 0 min 0 W/m 0,0 km/h (0 Bft) 97,87 %
03.03.2020 21:04 4,7 C 3,3 C 2,8 C 87 % 1007,9 hPa 0,0 l/m 0 min 0 min 0 W/m 0,0 km/h (0 Bft) 95,74 %
03.03.2020 21:06 4,7 C 3,3 C 2,8 C 87 % 1008,0 hPa 0,0 l/m 0 min 0 min 0 W/m 0,0 km/h (0 Bft) 95,74 %
03.03.2020 21:08 4,6 C 3,3 C 2,8 C 87 % 1008,0 hPa 0,0 l/m 0 min 0 min 0 W/m 0,0 km/h (0 Bft) 100,00 %
03.03.2020 21:10 4,6 C 3,3 C 2,8 C 87 % 1008,0 hPa 0,0 l/m 0 min 0 min 0 W/m 0,0 km/h (0 Bft) 100,00 %
03.03.2020 21:12 4,6 C 3,3 C 2,8 C 87 % 1008,0 hPa 0,0 l/m 0 min 0 min 0 W/m 0,0 km/h (0 Bft) 100,00 %
03.03.2020 21:14 4,6 C 3,3 C 2,8 C 87 % 1008,0 hPa 0,0 l/m 0 min 0 min 0 W/m 0,0 km/h (0 Bft) 100,00 %
03.03.2020 21:16 4,6 C 3,3 C 2,8 C 87 % 1008,0 hPa 0,0 l/m 0 min 0 min 0 W/m 0,0 km/h (0 Bft) 100,00 %
03.03.2020 21:18 4,6 C 3,3 C 2,2 C 87 % 1008,0 hPa 0,0 l/m 0 min 0 min 0 W/m 0,0 km/h (0 Bft) 100,00 %
03.03.2020 21:20 4,6 C 2,8 C 2,2 C 87 % 1008,0 hPa 0,0 l/m 0 min 0 min 0 W/m 0,0 km/h (0 Bft) 100,00 %
03.03.2020 21:22 4,5 C 2,8 C 2,2 C 87 % 1008,0 hPa 0,0 l/m 0 min 0 min 0 W/m 0,0 km/h (0 Bft) 100,00 %
03.03.2020 21:24 4,5 C 3,3 C 1,7 C 87 % 1008,0 hPa 0,0 l/m 0 min 0 min 0 W/m 0,0 km/h (0 Bft) 100,00 %
03.03.2020 21:26 4,4 C 3,3 C 1,7 C 87 % 1008,0 hPa 0,0 l/m 0 min 0 min 0 W/m 0,0 km/h (0 Bft) 97,87 %
03.03.2020 21:28 4,4 C 2,8 C 1,7 C 87 % 1008,0 hPa 0,0 l/m 0 min 0 min 0 W/m 0,0 km/h (0 Bft) 100,00 %
03.03.2020 21:30 4,4 C 2,8 C 1,7 C 87 % 1008,0 hPa 0,0 l/m 0 min 0 min 0 W/m 0,0 km/h (0 Bft) 100,00 %
03.03.2020 21:32 4,3 C 3,3 C 1,7 C 87 % 1008,0 hPa 0,0 l/m 0 min 0 min 0 W/m 0,0 km/h (0 Bft) 100,00 %
03.03.2020 21:34 4,3 C 3,3 C 1,7 C 87 % 1008,0 hPa 0,0 l/m 0 min 0 min 0 W/m 0,0 km/h (0 Bft) 100,00 %
03.03.2020 21:36 4,3 C 2,8 C 1,7 C 87 % 1008,1 hPa 0,0 l/m 0 min 0 min 0 W/m 0,0 km/h (0 Bft) 100,00 %
03.03.2020 21:38 4,3 C 3,3 C 1,7 C 87 % 1008,1 hPa 0,0 l/m 0 min 0 min 0 W/m 0,0 km/h (0 Bft) 100,00 %
03.03.2020 21:40 4,3 C 3,3 C 1,7 C 87 % 1008,1 hPa 0,0 l/m 0 min 0 min 0 W/m 0,0 km/h (0 Bft) 100,00 %
03.03.2020 21:42 4,3 C 3,3 C 1,7 C 87 % 1008,1 hPa 0,0 l/m 0 min 0 min 0 W/m 0,0 km/h (0 Bft) 100,00 %
03.03.2020 21:44 4,2 C 3,3 C 2,2 C 87 % 1008,2 hPa 0,0 l/m 0 min 0 min 0 W/m 0,0 km/h (0 Bft) 100,00 %
03.03.2020 21:46 4,2 C 3,3 C 2,2 C 87 % 1008,2 hPa 0,0 l/m 0 min 0 min 0 W/m 0,0 km/h (0 Bft) 100,00 %
03.03.2020 21:48 4,2 C 3,3 C 2,2 C 88 % 1008,2 hPa 0,0 l/m 0 min 0 min 0 W/m 0,0 km/h (0 Bft) 100,00 %
03.03.2020 21:50 4,2 C 3,3 C 2,2 C 88 % 1008,2 hPa 0,0 l/m 0 min 0 min 0 W/m 0,0 km/h (0 Bft) 100,00 %
03.03.2020 21:52 4,2 C 3,3 C 2,2 C 88 % 1008,3 hPa 0,0 l/m 0 min 0 min 0 W/m 0,0 km/h (0 Bft) 100,00 %
03.03.2020 21:54 4,2 C 3,3 C 2,2 C 88 % 1008,2 hPa 0,0 l/m 0 min 0 min 0 W/m 0,0 km/h (0 Bft) 98,15 %
03.03.2020 21:56 4,1 C 3,3 C 2,2 C 88 % 1008,3 hPa 0,0 l/m 0 min 0 min 0 W/m 0,0 km/h (0 Bft) 97,87 %
03.03.2020 21:58 4,1 C 3,3 C 2,2 C 88 % 1008,3 hPa 0,0 l/m 0 min 0 min 0 W/m 0,0 km/h (0 Bft) 97,37 %
03.03.2020 22:00 4,1 C 3,3 C 2,2 C 89 % 1008,3 hPa 0,0 l/m 0 min 0 min 0 W/m 0,0 km/h (0 Bft) 97,87 %
03.03.2020 22:02 4,1 C 3,3 C 2,2 C 89 % 1008,3 hPa 0,0 l/m 0 min 0 min 0 W/m 0,0 km/h (0 Bft) 97,87 %
03.03.2020 22:04 4,1 C 3,3 C 2,2 C 89 % 1008,3 hPa 0,0 l/m 0 min 0 min 0 W/m 0,0 km/h (0 Bft) 97,92 %
03.03.2020 22:06 4,1 C 3,3 C 2,2 C 89 % 1008,3 hPa 0,0 l/m 0 min 0 min 0 W/m 0,0 km/h (0 Bft) 95,74 %
03.03.2020 22:08 4,1 C 3,3 C 2,2 C 89 % 1008,3 hPa 0,0 l/m 0 min 0 min 0 W/m 0,0 km/h (0 Bft) 97,83 %
03.03.2020 22:10 4,0 C 3,3 C 2,2 C 89 % 1008,3 hPa 0,0 l/m 0 min 0 min 0 W/m 0,0 km/h (0 Bft) 97,87 %
03.03.2020 22:12 4,0 C 3,3 C 2,2 C 89 % 1008,4 hPa 0,0 l/m 0 min 0 min 0 W/m 0,0 km/h (0 Bft) 97,87 %
03.03.2020 22:14 4,0 C 2,8 C 2,2 C 89 % 1008,4 hPa 0,0 l/m 0 min 0 min 0 W/m 0,0 km/h (0 Bft) 97,87 %
03.03.2020 22:16 4,0 C 2,8 C 2,2 C 89 % 1008,4 hPa 0,0 l/m 0 min 0 min 0 W/m 0,0 km/h (0 Bft) 97,87 %
03.03.2020 22:18 3,9 C 2,8 C 2,2 C 89 % 1008,4 hPa 0,0 l/m 0 min 0 min 0 W/m 0,0 km/h (0 Bft) 97,83 %
03.03.2020 22:20 3,9 C 2,8 C 2,2 C 89 % 1008,4 hPa 0,0 l/m 0 min 0 min 0 W/m 0,0 km/h (0 Bft) 97,87 %
03.03.2020 22:22 3,9 C 2,8 C 2,2 C 89 % 1008,3 hPa 0,0 l/m 0 min 0 min 0 W/m 0,0 km/h (0 Bft) 95,74 %
03.03.2020 22:24 3,9 C 2,8 C 2,2 C 90 % 1008,3 hPa 0,0 l/m 0 min 0 min 0 W/m 0,0 km/h (0 Bft) 95,74 %
03.03.2020 22:26 3,8 C 2,8 C 2,2 C 90 % 1008,3 hPa 0,0 l/m 0 min 0 min 0 W/m 0,0 km/h (0 Bft) 97,87 %
03.03.2020 22:28 3,8 C 2,8 C 2,2 C 90 % 1008,4 hPa 0,0 l/m 0 min 0 min 0 W/m 0,0 km/h (0 Bft) 97,87 %
03.03.2020 22:30 3,8 C 2,8 C 2,2 C 90 % 1008,4 hPa 0,0 l/m 0 min 0 min 0 W/m 0,0 km/h (0 Bft) 97,83 %
03.03.2020 22:32 3,8 C 2,8 C 2,2 C 90 % 1008,4 hPa 0,0 l/m 0 min 0 min 0 W/m 0,0 km/h (0 Bft) 95,74 %
03.03.2020 22:34 3,8 C 2,8 C 2,2 C 90 % 1008,4 hPa 0,0 l/m 0 min 0 min 0 W/m 0,0 km/h (0 Bft) 95,74 %
03.03.2020 22:36 3,8 C 2,8 C 2,2 C 90 % 1008,4 hPa 0,0 l/m 0 min 0 min 0 W/m 0,0 km/h (0 Bft) 93,62 %
03.03.2020 22:38 3,7 C 2,8 C 2,2 C 90 % 1008,4 hPa 0,0 l/m 0 min 0 min 0 W/m 0,0 km/h (0 Bft) 93,62 %
03.03.2020 22:40 3,7 C 2,8 C 2,2 C 90 % 1008,4 hPa 0,0 l/m 0 min 0 min 0 W/m 0,0 km/h (0 Bft) 93,62 %
03.03.2020 22:42 3,7 C 2,8 C 2,2 C 90 % 1008,4 hPa 0,0 l/m 0 min 0 min 0 W/m 0,0 km/h (0 Bft) 95,65 %
03.03.2020 22:44 3,7 C 2,8 C 2,2 C 90 % 1008,4 hPa 0,0 l/m 0 min 0 min 0 W/m 0,0 km/h (0 Bft) 93,62 %
03.03.2020 22:46 3,7 C 2,8 C 2,2 C 90 % 1008,5 hPa 0,0 l/m 0 min 0 min 0 W/m 0,0 km/h (0 Bft) 95,74 %
03.03.2020 22:48 3,6 C 2,8 C 2,2 C 90 % 1008,5 hPa 0,0 l/m 0 min 0 min 0 W/m 0,0 km/h (0 Bft) 95,74 %
03.03.2020 22:50 3,6 C 2,8 C 2,2 C 90 % 1008,5 hPa 0,0 l/m 0 min 0 min 0 W/m 0,0 km/h (0 Bft) 98,18 %
03.03.2020 22:52 3,6 C 2,8 C 2,2 C 90 % 1008,5 hPa 0,0 l/m 0 min 0 min 0 W/m 0,0 km/h (0 Bft) 97,83 %
03.03.2020 22:54 3,6 C 2,8 C 2,2 C 90 % 1008,5 hPa 0,0 l/m 0 min 0 min 0 W/m 0,0 km/h (0 Bft) 97,37 %
03.03.2020 22:56 3,6 C 2,8 C 2,2 C 90 % 1008,6 hPa 0,0 l/m 0 min 0 min 0 W/m 0,0 km/h (0 Bft) 97,87 %
03.03.2020 22:58 3,6 C 2,8 C 1,7 C 90 % 1008,6 hPa 0,0 l/m 0 min 0 min 0 W/m 0,0 km/h (0 Bft) 95,74 %
03.03.2020 23:00 3,6 C 2,8 C 1,7 C 90 % 1008,6 hPa 0,0 l/m 0 min 0 min 0 W/m 0,0 km/h (0 Bft) 97,87 %
03.03.2020 23:02 3,6 C 2,8 C 1,7 C 90 % 1008,7 hPa 0,0 l/m 0 min 0 min 0 W/m 0,0 km/h (0 Bft) 97,92 %
03.03.2020 23:04 3,5 C 2,8 C 1,7 C 90 % 1008,7 hPa 0,0 l/m 0 min 0 min 0 W/m 0,0 km/h (0 Bft) 97,83 %
03.03.2020 23:06 3,5 C 2,8 C 1,7 C 90 % 1008,7 hPa 0,0 l/m 0 min 0 min 0 W/m 0,0 km/h (0 Bft) 95,74 %
03.03.2020 23:08 3,5 C 2,2 C 1,7 C 90 % 1008,6 hPa 0,0 l/m 0 min 0 min 0 W/m 0,0 km/h (0 Bft) 100,00 %
03.03.2020 23:10 3,5 C 2,2 C 1,7 C 90 % 1008,7 hPa 0,0 l/m 0 min 0 min 0 W/m 0,0 km/h (0 Bft) 98,18 %
03.03.2020 23:12 3,4 C 2,2 C 1,7 C 90 % 1008,7 hPa 0,0 l/m 0 min 0 min 0 W/m 0,0 km/h (0 Bft) 100,00 %
03.03.2020 23:14 3,4 C 2,2 C 1,7 C 90 % 1008,7 hPa 0,0 l/m 0 min 0 min 0 W/m 0,0 km/h (0 Bft) 100,00 %
03.03.2020 23:16 3,4 C 2,2 C 1,7 C 90 % 1008,7 hPa 0,0 l/m 0 min 0 min 0 W/m 0,0 km/h (0 Bft) 100,00 %
03.03.2020 23:18 3,4 C 2,2 C 1,7 C 90 % 1008,7 hPa 0,0 l/m 0 min 0 min 0 W/m 0,0 km/h (0 Bft) 100,00 %
03.03.2020 23:20 3,4 C 2,8 C 1,7 C 90 % 1008,7 hPa 0,0 l/m 0 min 0 min 0 W/m 0,0 km/h (0 Bft) 100,00 %
03.03.2020 23:22 3,4 C 2,8 C 1,7 C 90 % 1008,7 hPa 0,0 l/m 0 min 0 min 0 W/m 0,0 km/h (0 Bft) 100,00 %
03.03.2020 23:24 3,4 C 2,8 C 2,2 C 90 % 1008,8 hPa 0,0 l/m 0 min 0 min 0 W/m 0,0 km/h (0 Bft) 100,00 %
03.03.2020 23:26 3,4 C 2,8 C 2,2 C 90 % 1008,8 hPa 0,0 l/m 0 min 0 min 0 W/m 0,0 km/h (0 Bft) 97,87 %
03.03.2020 23:28 3,4 C 2,8 C 2,2 C 90 % 1008,8 hPa 0,0 l/m 0 min 0 min 0 W/m 0,0 km/h (0 Bft) 100,00 %
03.03.2020 23:30 3,4 C 2,8 C 2,2 C 90 % 1008,8 hPa 0,0 l/m 0 min 0 min 0 W/m 0,0 km/h (0 Bft) 97,87 %
03.03.2020 23:32 3,4 C 2,8 C 2,2 C 90 % 1008,9 hPa 0,0 l/m 0 min 0 min 0 W/m 0,0 km/h (0 Bft) 100,00 %
03.03.2020 23:34 3,3 C 2,8 C 2,2 C 91 % 1008,9 hPa 0,0 l/m 0 min 0 min 0 W/m 0,0 km/h (0 Bft) 100,00 %
03.03.2020 23:36 3,4 C 2,8 C 2,2 C 91 % 1008,9 hPa 0,0 l/m 0 min 0 min 0 W/m 0,0 km/h (0 Bft) 100,00 %
03.03.2020 23:38 3,4 C 2,8 C 2,2 C 90 % 1008,9 hPa 0,0 l/m 0 min 0 min 0 W/m 0,0 km/h (0 Bft) 97,87 %
03.03.2020 23:40 3,4 C 2,8 C 2,2 C 90 % 1008,9 hPa 0,0 l/m 0 min 0 min 0 W/m 0,0 km/h (0 Bft) 95,65 %
03.03.2020 23:42 3,4 C 2,8 C 2,2 C 91 % 1008,9 hPa 0,0 l/m 0 min 0 min 0 W/m 0,0 km/h (0 Bft) 100,00 %
03.03.2020 23:44 3,4 C 2,8 C 2,2 C 91 % 1008,9 hPa 0,0 l/m 0 min 0 min 0 W/m 0,0 km/h (0 Bft) 98,18 %
03.03.2020 23:46 3,4 C 2,8 C 2,2 C 91 % 1008,8 hPa 0,0 l/m 0 min 0 min 0 W/m 0,0 km/h (0 Bft) 97,87 %
03.03.2020 23:48 3,4 C 2,8 C 2,2 C 91 % 1008,9 hPa 0,0 l/m 0 min 0 min 0 W/m 3,2 km/h (1 Bft) 97,83 %
03.03.2020 23:50 3,4 C 2,8 C 2,2 C 91 % 1008,9 hPa 0,0 l/m 0 min 0 min 0 W/m 3,2 km/h (1 Bft) 97,44 %
03.03.2020 23:52 3,4 C 2,8 C 2,2 C 91 % 1008,9 hPa 0,0 l/m 0 min 0 min 0 W/m 0,0 km/h (0 Bft) 97,83 %
03.03.2020 23:54 3,4 C 2,8 C 2,2 C 91 % 1008,9 hPa 0,0 l/m 0 min 0 min 0 W/m 0,0 km/h (0 Bft) 97,92 %
03.03.2020 23:56 3,3 C 2,8 C 2,2 C 91 % 1008,9 hPa 0,0 l/m 0 min 0 min 0 W/m 0,0 km/h (0 Bft) 95,74 %
03.03.2020 23:58 3,3 C 2,8 C 2,2 C 91 % 1009,0 hPa 0,0 l/m 0 min 0 min 0 W/m 0,0 km/h (0 Bft) 97,87 %
_ Min-Zeit 07:48 05:52 07:36 14:44 00:00 - - - - 00:18 02:54
Minimum _ 2,1 C 1,1 C 0,6 C 71 % 995,7 hPa - - - - 0,0 km/h (0 Bft) 51,16 %
_ Max-Zeit 14:46 14:40 16:24 00:00 23:58 08:28 12:08 00:08 11:36 11:28 00:02
Maximum _ 9,2 C 14,4 C 10,6 C 98 % 1009,0 hPa 0,2 l/m 4 min 4 min 708 W/m 35,4 km/h
S (5 Bft)
100,00 %
Durchschnitt _ 5,1 C 5,2 C 3,9 C 88 % 1002,9 hPa #0,2 l/m #5:14 h #1:10 h 229 W/m 7,1 km/h (2 Bft) 97,09 %
© 2020 W. Hausmann